GFSSGP_850_rhum_000.txt.gz
RH
4 8 9 12 17 21 20 12 11 13 21 53 53 52 63 64 68 82 92 92 74 55 44 39 36 38 41 43 53 56 72 80 79 75 75 77 80 76 71 66 61 69 56 51 45 38 55 63 59
3 9 9 11 23 24 20 12 12 11 44 42 56 63 69 88 77 78 80 83 76 68 67 41 34 29 29 32 43 53 59 70 62 45 44 53 74 79 79 76 77 68 67 57 49 51 62 57 52
9 8 8 19 24 23 17 13 10 25 38 24 56 66 68 80 84 79 72 68 63 66 62 47 41 36 33 31 32 34 37 43 50 39 56 56 66 71 68 64 68 64 63 57 56 56 67 58 52
9 10 9 15 13 12 11 14 13 15 36 47 56 73 70 67 64 67 55 50 63 54 54 44 38 31 29 35 39 42 41 40 40 38 35 37 49 61 62 60 59 64 77 66 65 63 78 54 59
8 9 16 13 11 10 9 11 25 43 47 50 44 62 75 68 50 46 58 64 61 48 44 39 39 37 38 41 44 45 45 44 43 42 44 46 44 38 35 38 45 62 68 78 81 71 81 73 75
9 10 16 16 12 9 8 9 15 28 45 42 44 58 64 72 48 63 73 76 73 51 59 54 56 50 40 38 38 39 41 41 40 40 42 45 47 49 51 53 54 64 76 74 67 50 48 56 79
11 14 15 11 12 9 7 8 11 10 10 26 28 62 73 70 60 68 74 77 63 60 72 70 78 73 70 45 50 42 40 43 42 42 42 41 38 37 37 38 50 57 57 52 49 46 53 72 75
7 12 11 11 11 8 7 8 10 10 10 24 30 52 47 56 61 69 68 67 67 63 59 57 57 56 57 45 45 58 54 56 50 45 41 42 41 37 36 31 31 38 59 68 68 68 69 76 90
7 16 16 14 11 10 8 10 9 10 10 14 30 24 29 47 64 66 67 70 72 68 74 62 50 38 37 52 49 66 62 59 52 49 45 45 45 34 31 29 29 38 39 42 57 68 80 84 92
11 17 13 12 11 11 11 11 9 8 15 32 42 32 36 40 58 46 38 62 68 65 58 48 33 29 41 46 69 72 70 66 67 55 44 39 30 33 33 25 26 30 29 21 27 39 62 74 73
12 17 14 14 11 12 14 13 11 11 14 17 41 40 38 38 38 30 37 58 59 61 47 39 32 26 23 39 63 76 74 70 66 52 47 44 31 25 27 26 21 31 33 16 36 41 38 63 75
15 14 14 13 12 12 15 13 14 13 12 14 20 28 44 46 38 35 45 40 59 44 36 35 30 30 25 40 61 68 79 76 61 64 51 49 32 29 22 13 15 20 15 18 31 38 32 32 38
15 14 14 14 14 13 13 13 14 13 12 14 16 32 37 39 33 39 40 35 35 34 32 30 27 30 25 29 45 61 71 70 65 54 49 44 30 30 29 26 24 24 22 22 22 26 28 29 30
17 16 16 15 15 15 16 16 15 13 11 14 16 21 23 26 27 30 32 31 29 28 27 25 27 28 27 28 37 53 65 72 68 63 56 41 29 28 30 26 23 23 23 22 22 18 17 17 17
16 19 19 17 16 16 12 12 15 10 11 12 15 14 14 16 21 23 25 28 27 25 24 26 28 28 28 26 30 34 39 47 41 34 28 28 29 25 29 28 26 26 27 26 23 22 22 21 20
21 21 25 18 18 13 12 17 12 13 12 12 15 15 15 17 17 20 22 22 23 23 24 26 28 28 28 28 27 29 34 40 41 38 36 32 31 33 28 28 38 43 37 30 26 29 31 33 30
27 25 22 20 14 14 13 18 16 15 14 13 15 16 15 17 18 19 20 22 22 24 25 26 28 28 28 29 30 28 33 40 40 38 35 32 33 38 33 28 36 44 43 39 39 41 39 33 32
27 24 23 22 20 26 23 25 23 16 16 14 14 16 16 18 19 18 19 21 23 25 26 26 26 25 25 26 28 29 30 31 36 39 37 31 39 46 40 33 36 48 48 44 42 45 40 36 35
20 24 28 25 22 29 30 32 28 18 19 19 18 18 21 22 22 19 19 22 23 24 24 26 24 26 28 26 27 28 30 31 32 34 33 40 44 39 38 41 39 46 48 48 48 48 42 41 45
24 29 33 31 26 30 32 33 24 18 19 18 19 19 20 22 22 23 24 24 25 25 25 25 28 30 31 30 31 32 33 33 33 33 32 34 39 39 42 41 40 44 46 46 46 46 44 48 41
24 30 32 35 36 33 31 31 22 18 21 21 20 19 19 19 21 22 22 23 24 25 26 28 30 31 33 34 34 35 35 35 34 34 33 33 36 39 40 41 43 43 47 46 48 48 50 48 43
31 24 31 37 41 46 32 51 27 21 21 22 22 20 20 23 24 24 25 25 26 27 28 29 31 32 34 36 36 37 38 38 37 37 35 34 33 36 41 43 45 47 48 48 49 49 48 46 46
30 30 38 38 46 42 41 43 30 21 22 24 28 24 25 25 26 26 27 27 29 30 31 32 34 35 38 40 42 42 43 43 42 40 38 35 34 33 34 42 48 49 50 48 47 53 58 57 47
31 38 44 48 48 63 40 39 39 32 24 32 30 25 25 26 26 27 29 30 33 36 38 40 44 45 44 42 40 40 40 40 45 45 43 40 36 35 37 39 49 54 53 55 56 66 63 58 56
42 56 79 69 78 71 45 47 36 28 27 28 27 26 25 26 27 29 31 34 36 36 38 41 43 42 42 41 42 39 37 39 41 40 40 46 41 43 55 49 57 53 52 54 58 58 65 65 66
41 53 82 78 84 76 50 46 38 26 24 23 23 26 29 33 34 35 37 42 42 41 41 41 43 40 42 46 44 37 39 39 36 36 38 44 51 50 51 50 52 55 63 65 70 82 92 96 60
41 60 44 63 91 86 68 49 30 30 36 31 31 32 34 35 37 40 41 41 42 43 44 46 49 49 43 44 44 42 40 42 39 39 41 53 56 48 49 52 66 86 94 94 86 85 68 57 50
36 38 64 81 84 94 70 60 50 39 43 40 40 37 40 38 40 41 43 46 47 45 44 44 43 45 46 50 52 48 44 40 40 44 48 53 50 49 60 83 96 97 83 78 68 54 50 43 45
50 65 56 58 79 95 97 82 45 45 45 45 43 41 43 44 45 44 45 48 51 52 51 56 54 58 52 54 59 58 51 44 47 53 53 51 52 67 81 68 64 55 48 49 54 55 58 58 58
43 53 62 88 79 86 91 70 39 44 37 39 42 44 47 47 49 51 54 55 46 43 52 56 47 53 59 68 65 61 50 50 54 56 55 53 55 56 59 49 46 45 53 55 60 60 53 46 43

GFSSGP_850_rhum_003.txt.gz
RH
6 5 9 13 16 21 19 13 12 12 59 61 50 51 63 73 67 61 89 88 77 48 39 40 43 57 50 58 59 69 62 79 82 81 76 78 73 67 59 54 52 50 55 63 55 54 54 54 48
5 8 9 12 21 23 19 15 21 34 61 59 59 64 77 88 84 92 89 92 88 73 43 35 33 34 44 45 58 63 73 77 67 50 54 64 81 86 84 82 83 80 77 72 61 57 61 60 55
9 9 8 22 25 21 19 14 24 48 52 38 64 71 71 82 85 87 84 87 80 65 49 42 36 32 32 34 37 40 47 53 57 47 59 58 69 74 72 69 64 64 64 57 53 59 62 61 56
9 9 9 17 15 12 14 19 15 28 43 55 65 77 72 78 69 71 81 75 52 51 46 40 41 35 32 29 32 32 32 36 38 39 35 32 32 41 46 44 41 42 55 67 62 61 59 64 62
8 8 15 14 12 11 13 31 33 45 46 49 48 75 76 76 60 54 62 55 43 40 40 37 32 29 28 29 32 33 38 38 34 33 32 36 43 42 37 32 29 25 40 64 72 80 74 69 58
8 10 15 16 12 10 9 16 21 38 39 41 56 67 73 68 54 66 68 51 42 33 36 40 40 38 36 27 29 33 37 38 38 36 36 42 45 41 38 35 42 50 51 55 63 50 40 32 46
11 14 14 12 10 10 8 9 11 11 18 27 41 83 74 57 63 63 68 60 53 46 38 35 36 31 28 24 31 40 39 40 41 39 39 41 40 37 35 35 39 46 55 57 53 49 48 52 64
8 13 12 12 10 9 8 9 10 10 15 33 30 59 81 55 64 68 74 74 70 60 48 42 38 28 22 31 48 58 56 51 47 42 40 39 41 40 33 24 26 32 45 56 63 66 70 74 75
8 17 20 14 11 11 10 11 11 11 18 17 30 27 34 60 67 73 76 79 78 62 58 57 49 34 27 25 47 66 68 62 59 53 47 46 44 38 30 26 24 30 36 40 48 60 67 73 81
13 19 14 13 11 11 12 11 10 11 27 38 31 26 34 55 70 68 68 72 70 60 60 55 41 32 28 30 39 66 70 66 64 65 50 39 36 26 24 23 24 25 30 29 33 46 52 68 74
14 19 14 14 12 12 14 14 12 12 18 35 29 29 38 56 63 67 65 61 53 62 64 49 38 34 30 30 45 55 60 54 60 52 47 39 33 26 18 16 17 18 20 23 16 26 34 41 57
16 14 14 14 13 14 15 14 14 13 12 14 18 22 33 40 39 31 35 53 61 63 59 39 36 32 29 24 28 40 51 65 68 55 41 36 31 24 30 32 26 18 20 18 16 20 23 28 26
16 15 15 14 14 13 14 14 14 14 12 14 21 32 33 32 32 35 40 44 41 53 45 36 30 27 28 27 24 36 60 65 70 69 57 48 47 34 30 30 26 24 26 28 26 22 20 20 21
17 17 17 16 15 16 16 16 16 13 12 14 19 31 32 32 32 38 42 39 36 38 32 28 26 27 28 28 28 34 50 63 69 72 68 60 52 31 26 27 28 28 32 32 33 28 21 18 17
17 19 21 18 17 18 15 14 16 12 12 13 17 25 35 35 35 28 26 29 33 30 27 24 26 28 28 29 29 30 40 50 53 49 41 37 33 30 30 28 27 28 33 33 34 29 25 26 29
21 23 25 18 20 16 13 20 13 13 15 13 15 24 24 21 17 22 25 27 29 28 25 26 27 28 27 27 28 29 29 29 35 42 40 40 37 34 33 35 31 26 27 29 30 29 30 36 36
30 26 22 20 19 19 15 19 14 15 18 15 12 15 18 18 17 19 21 26 28 27 26 25 26 26 24 25 26 26 27 28 30 31 32 37 37 36 38 39 36 30 33 34 35 37 38 39 36
27 25 25 24 22 32 29 26 26 22 18 16 16 18 18 19 20 19 18 19 22 25 26 25 25 22 27 28 29 29 30 30 30 31 31 32 33 34 40 44 39 37 37 38 40 39 40 40 37
21 26 32 27 24 33 33 39 33 25 20 19 18 18 20 21 19 18 17 20 23 26 25 25 25 28 30 31 31 32 33 34 34 33 33 33 32 31 32 36 37 38 39 39 42 43 44 46 42
24 29 31 33 29 36 36 36 24 22 21 24 22 25 22 22 22 23 24 24 24 25 26 26 28 30 31 33 35 36 37 37 37 37 36 35 34 33 32 32 35 38 40 41 42 43 46 47 45
26 29 30 35 37 33 37 33 22 22 23 24 24 24 25 23 22 22 23 23 25 26 26 28 28 30 32 34 36 38 39 40 41 40 41 41 38 35 33 33 36 38 41 42 42 44 46 46 46
32 23 31 39 42 47 38 43 32 22 23 24 26 24 24 24 24 24 24 25 26 26 27 29 30 32 33 35 39 42 43 44 44 43 39 40 45 40 35 34 35 41 45 45 46 47 47 48 48
35 37 40 40 46 45 42 45 37 30 22 26 30 26 24 24 26 26 26 27 27 28 30 31 33 35 39 42 42 43 43 42 41 36 39 41 44 47 42 37 35 45 50 47 48 50 52 50 48
35 42 48 51 52 62 43 44 42 37 33 32 30 27 27 27 26 28 30 31 31 34 36 39 42 43 44 44 42 42 43 42 42 37 40 39 38 38 38 42 39 52 54 58 63 49 45 43 48
45 59 73 64 76 71 50 48 42 31 31 30 31 28 26 27 28 30 32 34 40 43 42 41 40 40 40 40 40 42 38 37 40 41 42 40 38 39 43 47 49 56 60 68 52 52 56 59 73
43 54 80 68 85 79 54 50 42 29 25 26 27 27 31 34 35 36 40 44 42 42 42 43 44 43 42 40 42 42 42 43 47 48 44 40 40 48 59 58 61 62 60 55 69 89 97 100 99
45 63 49 76 94 89 72 53 36 37 42 30 34 37 42 44 44 42 41 42 46 46 47 47 45 43 41 44 46 44 45 41 48 55 44 42 42 50 59 58 58 65 72 97 99 99 97 96 85
43 42 67 84 84 90 77 72 57 43 51 44 46 46 44 43 42 43 44 47 52 51 48 44 45 47 45 43 41 44 43 43 55 54 48 47 51 58 56 56 58 76 93 83 65 54 53 55 56
58 69 62 63 81 91 96 83 53 53 48 51 50 47 47 46 47 50 52 55 56 49 47 54 56 47 47 53 58 61 50 49 56 55 53 53 55 53 62 72 74 61 49 52 55 56 57 62 62
48 63 64 86 77 87 94 74 43 43 46 49 51 54 52 50 50 51 53 58 49 53 58 48 48 44 54 68 74 63 54 52 59 57 54 51 55 74 72 53 45 38 43 44 50 54 46 42 44

GFSSGP_850_rhum_006.txt.gz
RH
5 6 9 14 17 20 19 14 12 18 58 60 58 57 78 92 75 61 88 88 56 45 46 59 73 79 66 75 78 86 80 81 81 80 77 75 68 64 74 83 69 57 58 59 62 71 67 58 58
6 7 10 12 21 24 20 16 44 43 64 60 59 64 77 95 89 90 88 89 77 48 37 45 49 57 49 58 56 60 58 66 62 52 55 70 80 74 69 64 59 57 59 64 75 72 58 61 64
9 9 8 22 25 22 25 16 50 59 58 49 70 74 76 90 85 84 84 78 74 49 39 34 32 32 35 32 37 34 42 44 45 35 41 50 62 82 87 86 77 63 60 62 62 60 65 66 61
9 9 10 18 16 14 18 19 49 53 53 61 69 79 76 86 73 68 66 60 54 43 40 40 34 25 22 20 20 20 21 23 25 29 34 35 39 51 48 38 28 27 45 65 72 73 69 70 69
8 8 16 16 14 15 21 30 32 47 49 52 58 82 80 79 64 66 57 44 38 33 32 26 22 20 19 18 19 22 25 28 30 31 31 31 40 45 44 41 42 44 47 51 60 71 77 78 81
9 9 17 17 12 10 11 21 31 39 44 54 60 71 75 67 56 61 58 45 40 30 26 27 31 28 27 29 32 34 36 38 39 40 43 48 47 43 36 32 29 36 40 47 52 51 41 36 43
10 15 15 13 11 10 8 9 11 16 24 40 46 78 73 77 70 66 68 56 50 40 34 36 36 35 36 34 38 44 48 43 44 43 44 45 42 39 37 32 28 27 30 41 52 56 56 57 61
8 13 12 12 11 9 9 10 11 12 21 36 38 77 70 61 71 76 72 64 60 54 54 52 48 34 27 26 29 42 50 56 50 47 44 41 42 40 34 26 18 18 24 27 34 41 41 42 47
9 19 18 12 11 10 11 11 12 14 22 23 36 31 35 48 69 77 80 71 64 60 56 61 50 34 27 24 23 37 40 52 58 60 49 43 43 41 27 22 19 22 24 25 21 20 24 31 40
14 19 14 13 12 12 13 11 10 15 27 32 28 30 37 56 67 72 78 70 56 57 52 59 46 34 29 26 26 32 32 33 43 45 52 45 39 36 29 23 22 22 23 24 27 19 24 28 33
15 18 15 14 12 11 14 14 12 17 24 25 19 31 44 59 67 72 67 60 44 54 59 61 46 36 30 30 37 33 31 39 45 52 45 42 39 36 28 24 26 26 20 19 25 20 23 35 32
16 15 14 14 13 15 15 15 14 14 12 12 16 21 31 46 52 64 65 52 52 52 62 63 40 31 28 29 30 29 31 47 59 67 60 51 42 36 30 29 27 27 26 23 23 22 23 26 28
16 16 16 15 14 14 14 15 14 14 13 13 17 32 32 33 34 46 51 48 56 57 59 59 34 28 27 28 28 29 36 48 55 62 63 61 58 54 49 34 26 27 28 27 30 32 29 25 21
18 18 18 17 17 16 16 17 15 13 13 13 16 25 32 32 28 34 39 42 48 46 52 45 31 28 28 28 28 30 34 38 42 47 57 63 57 45 35 30 30 28 30 31 34 36 33 26 22
19 20 21 19 19 18 16 17 16 13 12 13 15 28 31 30 30 32 33 34 34 34 50 37 31 29 28 27 27 27 28 29 31 37 43 44 43 40 36 33 30 32 30 32 37 35 33 27 26
23 24 25 18 20 16 14 23 16 12 17 17 14 22 32 32 37 43 31 28 28 35 40 34 30 28 26 25 26 27 27 28 30 30 31 32 33 34 35 33 31 35 35 29 28 33 34 32 34
31 24 23 23 25 30 18 23 16 15 20 20 18 17 33 41 42 25 23 23 32 38 35 30 29 26 24 27 28 29 29 30 32 33 33 32 32 34 35 33 32 37 36 35 32 32 34 37 38
27 24 28 26 26 34 34 31 31 25 23 23 19 18 23 25 22 21 20 19 24 30 29 29 27 24 28 29 30 30 33 34 35 36 36 37 36 34 34 33 32 37 37 36 35 35 37 37 37
23 26 32 30 27 35 37 42 32 24 23 22 22 21 21 21 20 19 19 21 22 26 28 26 26 29 29 31 33 36 37 37 39 39 39 39 39 39 37 35 33 33 37 34 36 37 39 39 40
24 29 30 33 32 36 39 37 23 26 28 29 28 27 24 21 21 20 21 22 24 25 26 25 26 28 31 32 33 34 36 38 41 42 42 43 43 41 42 40 38 35 34 36 38 39 39 40 42
31 27 29 35 38 36 39 31 32 23 25 26 27 26 24 22 22 22 23 24 24 25 26 27 28 29 30 32 34 36 41 43 43 44 43 42 38 38 43 46 44 38 34 34 35 41 42 41 44
37 26 32 39 46 47 39 42 37 35 25 31 26 24 24 24 24 24 24 25 25 26 27 29 30 31 34 38 42 44 44 45 44 43 39 38 39 40 41 40 45 48 44 41 38 45 47 49 50
38 40 43 41 49 47 48 46 36 35 27 28 28 25 25 25 25 26 26 26 26 28 30 34 36 40 42 43 44 44 42 42 42 41 40 40 40 41 42 41 40 40 43 44 49 56 53 63 64
38 46 44 54 55 63 49 49 44 40 34 32 31 29 28 27 28 31 32 32 34 39 43 43 42 41 42 42 42 41 39 39 35 32 31 29 31 37 38 38 38 38 48 56 68 59 63 65 57
49 55 64 62 74 70 51 52 42 34 31 30 30 27 28 31 33 35 36 41 44 44 43 44 45 44 44 42 39 35 33 33 32 28 26 27 39 44 41 41 43 52 64 76 70 66 59 56 63
47 56 77 59 87 82 59 54 44 32 34 30 31 35 38 41 41 42 46 45 44 46 48 48 47 45 43 40 37 37 38 39 37 32 30 31 50 48 47 50 61 69 74 73 76 82 90 97 100
46 66 54 79 96 90 73 56 42 44 48 38 44 45 44 43 42 41 42 44 46 47 48 48 42 41 44 40 41 44 40 38 36 40 36 46 54 52 55 64 72 76 75 77 89 99 99 98 96
48 47 65 84 88 87 74 70 62 57 54 57 53 47 47 46 46 47 48 48 53 57 48 48 50 48 46 44 43 46 53 48 44 44 43 56 57 59 68 69 69 71 72 80 90 92 58 51 58
60 68 65 68 83 93 97 80 56 55 53 59 53 55 54 54 52 52 53 55 58 58 54 54 48 40 38 44 58 70 61 51 42 48 59 62 66 68 67 70 79 90 72 49 51 58 62 60 55
54 57 64 83 71 90 93 85 46 49 54 51 56 59 58 58 54 54 58 63 66 60 66 64 53 55 61 70 73 61 57 50 63 62 62 71 68 64 69 82 94 63 59 49 41 46 51 51 49

GFSSGP_850_rhum_009.txt.gz
RH
5 7 10 14 13 14 16 15 12 35 54 64 60 49 61 83 59 54 82 82 46 41 50 65 67 71 76 82 85 81 69 75 78 77 72 70 66 72 84 88 85 74 64 60 56 64 68 70 60
6 8 10 12 15 17 25 20 22 51 66 69 70 76 74 74 91 80 84 59 44 37 38 39 40 41 43 42 40 53 62 62 60 58 64 73 74 71 68 70 64 59 57 62 70 68 64 58 70
9 9 10 17 20 18 29 25 53 64 57 59 69 76 80 83 79 75 73 57 42 31 30 29 30 29 24 20 28 33 39 47 54 44 50 50 53 70 84 87 84 73 56 53 57 61 60 68 68
9 8 11 21 24 18 25 33 55 54 56 64 70 65 79 81 71 69 65 56 41 32 27 24 22 23 27 31 30 30 35 38 41 51 49 46 54 61 62 50 38 32 35 46 55 72 72 67 70
8 9 16 24 25 23 24 30 46 42 50 58 62 73 83 86 66 54 50 42 31 29 24 24 25 25 25 25 26 28 29 34 36 34 35 38 42 47 47 46 47 50 56 54 56 57 60 61 61
9 10 18 23 19 11 19 26 38 44 56 60 64 70 80 60 58 48 42 39 34 26 27 30 29 25 24 26 30 33 36 39 39 39 38 38 42 44 39 38 34 25 22 27 43 54 52 51 54
11 14 14 13 12 10 10 10 17 26 33 40 48 60 80 61 59 53 42 42 41 44 40 38 33 27 28 30 33 43 49 46 44 43 41 39 38 39 40 37 31 19 20 27 36 44 50 51 56
8 11 12 12 11 10 9 11 11 17 30 44 45 50 74 63 68 68 59 58 56 55 48 47 43 32 29 31 34 34 30 43 46 47 45 40 37 39 40 30 26 20 22 24 23 22 23 28 37
9 13 12 11 10 11 12 11 12 22 28 27 31 34 35 56 71 76 71 68 68 59 57 58 47 35 29 28 29 25 23 28 32 38 44 43 38 37 38 25 21 20 22 23 23 23 19 24 28
12 14 14 12 11 12 14 11 11 17 29 38 33 32 37 52 65 69 72 60 51 52 52 56 53 36 29 27 27 23 23 28 35 41 40 46 46 39 36 31 24 23 26 24 21 24 25 20 28
16 15 15 14 11 13 15 15 12 18 22 21 20 28 36 52 66 70 62 51 47 56 59 61 58 37 28 28 29 28 26 30 36 43 47 46 40 36 35 32 29 32 31 31 26 25 26 24 31
17 16 15 15 13 13 15 14 15 16 12 12 15 24 29 51 55 61 65 55 48 54 58 64 60 35 29 28 28 32 36 41 48 48 49 54 56 54 51 48 46 32 29 32 31 29 31 31 28
17 16 16 15 13 14 15 15 15 15 13 13 18 26 31 37 38 48 51 54 52 54 57 65 60 36 30 28 28 31 36 38 38 40 44 48 50 50 46 39 33 30 29 28 29 30 32 30 28
19 19 20 18 18 18 18 18 16 14 14 14 15 23 30 30 33 39 52 52 44 48 54 61 55 33 29 27 25 28 30 30 29 29 30 34 39 39 39 38 34 31 28 29 30 30 33 32 29
20 18 18 20 21 17 18 16 15 14 14 14 15 23 32 33 37 34 47 46 46 48 52 53 50 33 29 24 26 27 27 28 29 30 31 32 31 32 32 33 33 32 32 33 34 31 31 31 29
20 21 21 19 23 20 16 20 16 14 15 17 20 17 36 40 37 34 38 43 38 37 42 54 42 31 27 25 27 27 26 28 30 31 32 34 35 35 34 34 34 34 32 35 34 33 31 32 33
25 18 23 22 28 27 24 24 20 24 24 24 21 19 23 37 41 45 45 36 26 30 39 50 36 30 24 27 28 28 29 32 35 36 37 37 38 38 38 37 37 35 34 35 38 35 34 32 32
26 23 26 26 23 29 31 29 26 25 26 27 21 18 20 37 43 38 22 21 21 31 48 43 33 26 27 28 30 32 35 37 36 37 40 40 41 41 41 42 41 40 37 35 34 34 36 35 35
24 26 30 27 29 32 36 32 21 26 27 26 24 22 24 26 22 20 20 20 22 25 31 30 26 28 30 31 32 34 35 35 36 40 42 43 43 44 44 43 42 44 44 42 39 40 39 37 37
26 28 26 29 30 34 34 26 24 27 32 36 33 28 25 23 21 21 22 22 24 25 28 27 28 29 30 31 32 33 34 36 38 43 43 41 42 40 38 40 39 41 45 47 44 46 49 42 39
33 28 31 34 34 34 33 27 28 23 28 28 28 26 23 22 22 23 24 25 26 27 28 29 30 31 32 35 39 43 44 44 44 42 40 38 38 39 39 39 40 40 40 41 47 45 45 54 47
37 32 39 40 41 37 37 31 31 30 26 28 27 26 26 26 25 26 27 27 28 29 30 32 36 39 44 46 45 43 43 42 41 38 36 32 29 28 27 28 33 37 38 40 40 46 49 61 64
39 42 44 42 45 43 41 34 31 31 28 26 28 27 26 27 28 28 29 30 33 37 39 42 45 44 44 43 42 40 38 37 36 32 27 22 19 18 19 21 26 31 35 36 37 42 51 64 78
40 43 41 47 47 50 47 42 38 34 33 31 31 31 32 31 32 35 38 44 44 45 45 44 43 43 43 41 39 39 39 36 33 28 24 20 21 22 21 26 35 40 43 46 53 65 81 94 90
43 42 46 54 60 54 48 46 38 36 34 33 34 37 38 39 38 37 43 47 46 45 44 45 46 45 43 43 41 38 36 34 33 29 28 26 21 25 32 50 50 50 50 62 75 80 82 86 93
50 50 62 54 63 60 53 49 45 42 42 40 46 47 47 47 47 47 46 45 46 47 48 50 48 46 43 40 39 36 36 38 36 33 31 24 24 32 53 58 62 70 76 83 85 86 95 98 98
47 59 52 71 90 79 56 48 42 40 41 47 49 50 50 48 48 49 48 48 49 52 50 55 55 50 42 35 34 39 52 58 46 36 32 31 38 58 70 74 81 81 81 94 95 99 99 95 93
44 46 54 66 74 68 51 58 42 48 45 49 50 57 54 50 48 46 44 46 55 60 65 59 61 58 54 55 62 69 69 54 43 37 41 50 59 75 82 86 69 74 82 91 94 91 62 54 56
52 55 60 59 71 80 91 56 49 48 47 47 53 60 56 53 51 52 53 55 60 70 68 59 67 75 65 66 74 71 58 47 46 48 62 60 77 86 68 73 74 92 98 96 82 63 52 52 53
52 54 54 61 60 76 83 65 42 46 47 51 54 59 58 56 60 60 61 63 69 68 63 54 68 63 66 74 70 60 58 61 60 66 66 78 78 62 73 83 87 98 95 91 68 69 61 58 53

GFSSGP_850_rhum_012.txt.gz
RH
5 6 10 15 10 12 18 20 21 34 33 42 41 32 35 48 40 43 72 70 63 75 82 65 60 64 66 73 84 79 76 80 82 77 73 75 72 80 86 87 86 83 69 63 60 56 61 62 67
6 8 12 11 10 13 18 18 22 30 41 43 44 43 34 41 58 68 66 53 54 45 63 59 55 59 60 71 82 79 79 82 84 82 79 76 74 77 87 86 79 65 61 64 70 67 59 62 59
7 10 9 9 10 15 19 20 32 40 43 42 40 47 47 45 58 60 62 43 36 37 48 41 36 35 36 38 41 47 55 59 59 50 58 64 73 78 80 80 82 76 67 54 48 54 63 63 70
12 10 12 10 14 19 19 24 28 35 44 42 30 35 56 71 66 65 64 39 53 55 43 28 26 24 24 25 26 29 34 38 40 45 48 50 50 49 50 47 39 35 36 39 41 48 64 81 80
9 10 12 13 17 20 22 28 30 25 30 36 38 40 50 77 80 73 73 59 52 51 28 22 21 23 24 25 26 29 34 38 38 38 39 38 42 45 45 43 38 34 33 36 41 50 55 53 49
8 11 12 15 20 21 22 25 24 21 26 36 34 35 50 77 72 72 57 57 56 33 24 25 25 25 26 27 29 34 37 38 40 40 38 37 38 40 40 40 35 24 17 23 31 44 55 58 57
8 9 11 13 17 16 15 18 18 18 21 24 33 30 58 68 64 65 60 54 30 43 47 40 30 28 28 28 32 39 44 43 44 44 42 40 38 39 42 42 37 27 24 28 30 30 30 31 32
8 6 9 9 9 9 8 9 11 13 23 42 35 23 40 54 69 69 61 61 64 64 62 48 36 31 29 32 32 33 27 39 42 46 48 43 40 39 41 43 28 25 22 25 26 28 28 25 30
9 7 8 8 8 9 9 8 11 22 20 24 28 29 36 58 74 75 73 69 71 69 55 51 58 33 29 29 32 26 24 29 33 32 35 42 68 45 42 38 30 25 23 25 26 24 26 26 21
7 7 8 7 8 7 8 8 9 13 15 20 26 41 50 70 74 72 70 60 69 71 65 56 52 37 28 28 30 33 30 70 57 58 39 45 38 39 39 36 34 27 30 27 27 27 25 31 60
9 8 9 9 9 8 8 9 9 9 10 11 12 29 49 63 69 64 58 46 51 58 68 72 61 39 30 53 60 71 72 69 66 36 41 57 45 67 71 86 82 74 56 56 54 37 64 42 35
10 11 9 10 11 10 8 10 10 10 8 14 16 24 41 51 51 49 49 45 46 52 66 82 70 46 30 52 65 68 70 74 76 84 41 61 83 86 77 80 78 76 77 69 74 74 39 29 33
10 12 12 12 12 11 12 11 12 11 10 13 22 31 34 38 42 47 45 44 49 60 70 84 87 57 32 29 45 35 34 72 67 79 74 34 78 83 77 70 67 70 72 74 76 74 77 59 41
16 14 15 15 14 16 15 14 14 12 14 14 21 27 31 34 34 39 47 49 56 63 68 85 69 55 30 28 24 26 28 47 49 70 62 31 34 58 64 67 64 63 64 68 71 70 57 60 53
17 16 14 16 16 15 15 13 11 12 14 13 16 20 27 32 33 35 39 49 56 57 63 79 61 56 31 26 25 26 32 28 46 54 33 34 36 45 40 64 63 62 64 60 71 73 64 57 56
13 13 14 16 15 18 15 14 13 18 17 13 17 18 27 31 37 45 55 56 50 50 56 70 55 56 31 25 27 33 45 29 34 36 37 38 38 38 38 60 64 63 51 67 69 68 66 66 59
12 11 14 17 18 17 16 15 15 17 18 17 15 17 21 28 43 48 44 42 43 38 34 64 61 47 30 26 34 29 30 34 51 37 39 40 40 41 42 42 49 51 54 54 67 68 67 64 54
14 13 14 15 16 16 16 17 14 18 19 19 19 18 19 28 38 39 42 33 24 28 42 69 62 48 30 27 29 32 33 36 36 37 38 41 43 43 43 43 42 51 75 72 67 69 67 63 60
16 16 17 15 20 24 23 18 17 18 18 19 19 19 24 29 31 25 22 22 23 31 55 59 57 34 30 35 37 42 43 44 46 50 44 44 45 40 39 40 52 48 66 68 59 74 75 76 67
19 18 19 20 22 25 22 18 17 19 23 22 21 22 24 25 26 32 30 26 31 31 34 38 38 33 30 32 32 34 37 49 44 50 45 42 39 33 32 35 40 53 62 67 71 76 78 77 74
24 22 28 28 24 24 24 22 19 20 22 23 23 23 23 24 27 30 35 32 29 30 32 33 32 31 33 38 50 51 49 48 49 44 46 36 31 27 23 27 28 26 40 58 63 68 72 70 73
25 27 31 30 28 21 26 22 23 20 20 20 23 25 27 28 30 35 40 39 30 31 33 37 41 47 44 43 44 41 49 51 51 55 55 44 41 29 21 22 14 17 31 53 63 64 74 77 71
32 34 33 33 30 29 27 23 27 21 21 21 23 27 31 34 39 45 49 51 53 48 45 46 53 47 45 44 44 53 61 62 62 63 62 54 46 41 39 38 16 20 33 46 40 47 76 84 80
32 34 34 34 34 39 34 30 29 27 29 24 25 32 37 40 39 48 52 52 55 57 46 45 49 56 48 46 45 42 50 65 65 59 54 48 48 47 50 51 26 39 54 71 77 86 90 95 98
27 30 35 47 46 41 35 32 38 31 28 30 31 37 44 47 47 46 47 48 53 58 54 47 52 60 63 66 61 53 58 59 65 63 60 58 50 53 59 51 84 90 86 82 96 86 85 98 97
36 36 48 50 46 38 35 32 34 31 33 36 38 41 42 45 48 48 48 50 55 61 65 70 66 60 60 64 60 42 32 60 66 67 63 56 61 63 62 93 98 100 100 100 100 100 100 100 99
36 44 40 55 80 63 34 34 34 31 31 33 37 41 43 44 46 48 49 52 58 64 68 73 71 68 68 69 57 46 58 66 60 42 37 48 46 67 93 100 100 97 99 98 100 100 98 98 97
34 37 43 41 71 43 23 27 25 37 34 34 36 38 42 44 46 49 50 54 59 63 73 75 73 71 79 85 73 70 71 61 53 63 78 83 89 99 99 98 94 95 98 97 96 96 98 98 98
40 42 42 39 50 51 49 27 32 33 34 35 38 41 45 49 51 52 56 60 65 71 68 69 78 78 75 78 81 84 80 73 79 83 87 93 94 88 86 87 98 99 98 98 95 96 96 91 84
38 40 38 46 47 52 65 42 30 31 35 40 39 46 50 53 50 54 58 64 69 67 66 67 74 72 75 78 82 82 83 85 87 95 97 100 100 97 98 98 97 94 97 98 98 98 94 81 77

GFSSGP_850_rhum_015.txt.gz
RH
3 4 15 14 11 10 16 18 16 21 23 25 24 22 22 31 37 50 49 47 62 74 83 68 63 65 74 82 88 88 82 82 78 77 75 76 78 75 77 80 77 79 74 63 60 58 59 63 60
16 12 14 10 11 12 15 13 18 20 22 22 21 20 21 29 42 49 43 48 60 70 75 74 62 64 73 73 73 71 75 75 76 76 75 74 74 75 76 76 74 70 75 79 69 52 45 51 57
8 14 11 8 9 10 15 12 20 22 24 23 23 24 26 32 38 40 45 49 56 63 75 45 35 34 36 40 45 56 59 57 57 55 58 61 61 53 61 69 70 59 43 35 34 37 44 57 67
12 9 10 9 13 12 14 18 20 21 24 24 18 26 43 39 41 45 46 42 46 50 48 23 23 25 26 28 32 34 38 41 43 45 43 41 42 43 44 44 43 43 43 42 42 47 51 52 53
11 8 9 10 14 14 16 17 18 19 21 21 19 20 41 54 50 47 43 39 41 43 47 21 21 22 24 26 28 31 34 39 41 41 43 42 43 42 44 40 38 34 22 21 27 35 46 52 53
8 8 10 14 15 16 17 18 16 15 17 18 19 24 40 53 47 48 44 39 39 48 52 22 23 24 25 26 30 35 40 43 45 46 45 43 43 42 43 43 40 32 20 20 23 24 25 27 30
9 9 10 13 15 15 14 14 12 12 14 14 17 22 39 43 47 45 40 38 40 47 52 55 44 28 27 27 25 29 35 37 45 46 45 44 42 40 42 41 35 26 21 21 23 24 24 24 21
7 7 10 10 12 10 8 9 10 11 17 18 19 20 35 41 47 44 41 40 45 49 56 59 61 59 66 62 26 22 18 34 43 44 46 42 44 57 48 47 41 29 25 24 28 28 25 22 24
6 6 8 7 7 7 6 6 7 11 14 15 17 21 29 46 49 44 43 44 49 51 61 59 60 61 62 58 41 31 27 29 41 48 50 56 76 79 76 73 46 39 29 31 30 31 30 28 35
6 6 6 5 6 6 6 6 7 10 11 13 19 23 37 48 47 44 42 44 48 53 55 56 67 64 63 54 64 70 68 69 76 80 86 76 85 83 69 78 68 64 61 49 63 58 48 58 61
6 7 6 6 5 5 5 5 6 7 9 12 14 20 35 42 44 44 41 39 41 49 48 54 82 76 65 60 52 54 57 64 67 82 87 82 85 82 79 76 73 75 75 73 74 74 70 76 76
7 6 5 5 6 6 6 7 7 6 7 9 11 20 31 38 41 41 39 33 36 41 44 54 72 64 31 54 51 55 57 62 63 70 81 78 73 75 76 70 67 64 61 67 68 68 71 81 78
6 7 6 6 7 7 8 8 9 8 8 10 14 21 28 33 34 34 35 34 35 39 44 50 63 88 72 58 58 63 65 63 66 71 72 73 72 73 70 68 66 61 59 60 62 62 64 66 64
9 10 10 10 10 11 11 10 11 10 9 9 14 18 22 25 28 31 35 35 37 39 44 50 59 79 72 57 62 65 68 66 64 59 58 32 58 75 74 67 63 59 56 56 60 64 68 67 60
11 12 12 12 12 11 12 11 10 10 11 10 11 15 19 21 23 27 33 36 37 39 42 50 61 74 72 58 59 56 52 46 52 53 61 57 51 66 68 67 67 63 61 62 62 63 64 66 64
11 11 14 12 12 13 12 13 10 12 12 11 12 11 15 19 22 25 29 33 36 37 37 44 62 76 71 52 52 51 50 54 53 55 58 64 69 55 46 66 64 63 66 67 64 62 62 61 58
11 13 12 15 12 12 12 12 11 14 13 12 12 13 13 17 22 29 37 37 34 33 35 44 64 72 62 55 52 58 59 55 50 52 48 51 60 60 48 46 58 62 68 68 69 64 61 61 60
11 9 9 10 13 10 11 11 11 13 14 14 12 12 13 15 22 34 33 32 30 37 47 51 67 63 63 54 55 47 47 46 47 45 47 58 60 66 60 64 62 64 66 63 63 66 69 68 66
10 11 11 11 14 15 13 13 13 15 14 16 16 15 15 18 29 32 37 37 42 52 53 55 64 63 48 42 42 39 41 42 44 48 54 61 59 55 55 58 57 59 56 57 58 62 66 67 67
14 14 14 14 15 16 14 14 14 15 17 16 17 18 22 26 27 33 40 46 47 48 48 47 47 49 46 42 47 49 48 50 52 54 54 54 57 53 52 54 55 53 52 46 42 49 59 65 64
17 18 22 21 17 16 16 16 16 16 17 18 18 18 20 23 26 30 37 44 49 51 47 47 50 54 49 38 46 48 47 45 46 47 54 55 63 61 58 55 55 59 61 57 54 55 58 62 62
21 21 23 22 21 19 16 19 18 16 18 18 20 22 23 24 28 32 37 45 54 56 55 53 53 52 55 44 54 51 54 54 56 58 58 61 59 53 51 50 55 60 73 68 68 62 64 68 69
24 26 25 24 23 20 17 16 23 16 19 20 21 24 27 31 34 37 41 46 51 57 61 58 54 56 60 63 54 60 62 64 63 60 60 60 51 55 53 54 59 68 70 78 85 87 87 86 82
24 26 25 25 24 31 23 21 23 21 22 20 22 27 31 32 36 40 43 44 49 57 62 60 56 54 59 66 69 68 69 66 63 62 62 57 62 59 56 60 66 77 83 86 88 92 97 88 83
22 24 35 40 38 37 24 21 31 25 22 22 25 30 36 39 39 38 40 41 48 54 56 59 55 55 54 59 63 65 64 69 67 66 65 68 62 58 59 73 82 82 87 89 94 97 100 98 88
26 29 44 44 40 30 24 22 28 24 27 28 30 32 35 38 40 41 43 46 48 51 55 63 63 58 57 62 68 71 74 74 72 73 74 70 68 71 75 81 90 86 85 100 98 99 100 99 93
29 34 29 45 57 53 22 22 26 25 27 28 29 32 34 34 36 39 42 44 50 52 54 63 66 60 59 65 73 76 74 78 79 77 75 73 76 77 81 90 85 100 97 86 92 96 90 90 94
29 27 39 34 59 38 19 17 26 32 28 28 27 30 33 35 37 41 44 47 52 55 59 62 61 60 65 68 68 72 77 80 76 76 78 78 78 79 78 87 94 99 97 92 95 92 90 98 98
30 32 33 27 37 46 38 25 22 23 25 28 28 30 33 37 41 41 44 50 52 57 58 57 58 62 62 64 66 68 70 75 73 72 76 84 90 85 91 93 96 98 87 93 92 98 99 98 99
29 31 29 42 37 38 49 43 22 24 25 27 29 30 38 41 41 43 47 55 56 56 58 57 57 57 61 64 62 60 62 67 69 82 84 95 89 95 97 92 86 98 96 94 96 97 99 99 98

GFSSGP_850_rhum_018.txt.gz
RH
2 3 10 15 16 13 13 16 17 21 22 20 20 19 27 38 42 56 46 61 70 70 67 67 67 66 72 79 81 78 75 80 79 78 77 76 76 77 77 77 79 76 71 73 72 66 56 37 31
4 14 12 14 17 16 15 15 18 19 18 16 19 18 28 37 43 42 50 62 66 89 76 60 60 66 68 66 64 68 72 74 71 68 62 64 64 63 64 66 68 69 61 40 35 33 34 36 41
9 15 13 14 14 14 16 16 21 18 17 18 20 30 28 33 37 41 50 60 65 75 55 46 38 32 31 30 33 42 50 53 50 48 51 46 43 45 44 46 43 41 40 37 34 31 33 40 43
12 11 10 13 13 13 13 19 18 18 21 19 21 32 35 35 41 43 45 51 55 43 23 19 18 20 21 24 28 30 35 38 41 40 38 39 42 44 46 43 40 36 29 19 20 22 28 38 45
17 13 13 13 15 15 16 16 16 18 19 17 18 35 42 44 41 36 37 41 44 22 17 19 20 21 22 24 24 27 32 37 39 40 41 41 42 42 39 39 39 34 20 18 20 21 21 19 19
12 9 14 14 16 16 16 15 15 20 17 15 20 33 43 43 39 36 35 37 43 38 21 22 23 23 23 24 27 31 36 38 40 42 42 43 40 37 35 38 38 29 23 20 22 23 22 21 20
15 14 14 14 16 17 16 14 12 12 14 14 18 31 41 40 44 36 34 37 45 47 32 28 28 30 38 26 19 22 20 31 40 43 46 40 41 51 39 38 41 31 26 23 25 26 25 24 21
10 10 12 12 14 14 10 11 11 11 16 16 18 29 36 43 41 36 36 38 43 49 56 60 60 59 63 61 28 17 18 24 29 39 41 70 83 79 80 67 58 41 36 30 33 33 28 26 25
8 8 11 9 10 8 7 6 7 11 13 13 20 23 36 44 40 37 38 41 45 49 58 57 57 59 59 55 57 54 41 75 74 81 67 87 82 80 74 72 75 70 64 56 55 61 54 54 56
6 9 7 5 6 6 6 6 7 10 11 14 22 35 42 42 42 39 38 42 48 51 55 58 62 58 49 51 60 64 64 70 72 76 73 84 70 82 76 80 75 75 70 65 74 70 71 70 71
6 8 6 5 6 5 5 5 7 8 10 13 17 33 42 42 40 39 38 40 44 46 49 60 58 61 65 52 50 56 58 62 68 79 78 78 72 78 73 72 70 66 64 64 65 70 70 71 70
6 5 4 5 6 5 5 5 6 6 8 10 15 22 37 38 38 39 37 36 38 45 46 58 64 42 32 58 55 55 58 62 64 68 74 50 64 65 57 67 56 62 59 59 60 60 62 64 68
6 5 5 5 6 7 7 7 8 7 9 9 16 21 32 33 36 37 35 32 34 40 43 50 59 56 72 39 57 55 54 66 60 70 66 31 34 39 44 56 61 61 58 56 56 57 60 60 60
6 6 7 7 8 8 8 9 10 8 8 9 14 20 26 30 32 32 32 32 34 36 41 46 62 61 59 53 57 52 62 63 60 59 58 34 37 37 38 40 42 50 61 60 54 59 63 64 66
9 10 10 10 10 10 10 11 10 10 9 9 12 15 20 23 26 28 30 32 33 39 39 46 50 76 68 60 56 54 55 47 52 53 54 57 47 40 39 39 43 52 54 50 48 60 64 62 62
10 10 14 11 11 11 11 14 8 10 10 10 10 11 15 19 21 25 30 32 34 35 40 41 57 68 69 56 54 51 50 51 50 53 56 58 60 60 50 47 48 53 54 47 46 47 59 67 64
12 14 14 14 10 11 11 13 9 11 12 12 11 11 11 15 20 23 28 32 33 32 34 35 55 68 72 59 54 54 53 47 54 52 50 49 54 56 56 48 45 48 48 41 44 58 64 68 69
15 10 9 10 12 10 10 11 10 12 12 12 12 11 12 13 18 28 33 32 30 32 35 43 64 68 63 57 54 46 46 45 47 46 47 49 52 59 62 51 50 58 56 53 55 58 57 53 50
10 9 9 11 13 13 11 11 10 12 13 13 13 13 14 28 33 36 36 36 38 49 52 59 59 66 56 46 44 41 42 43 45 48 51 54 55 54 52 52 53 51 51 56 55 54 48 44 54
11 13 13 13 13 14 12 13 13 14 16 15 15 15 24 28 34 41 46 45 49 49 49 50 49 49 44 46 47 46 48 48 47 47 54 52 54 56 58 59 57 54 54 54 51 60 68 69 68
13 15 22 20 16 14 15 16 16 15 16 16 18 21 24 27 31 36 45 52 51 48 47 50 52 52 44 38 47 48 44 48 48 50 50 55 59 61 57 54 52 52 53 57 53 44 50 70 77
19 21 22 20 20 21 15 21 18 18 18 18 20 22 23 25 29 35 44 54 56 55 53 53 52 53 56 54 51 54 60 59 61 63 60 61 62 58 54 53 54 56 56 56 54 84 76 75 80
22 22 22 21 22 21 16 20 21 17 21 22 23 25 28 32 34 38 44 49 56 60 61 60 54 52 56 60 63 68 66 65 66 64 64 64 62 60 55 55 53 56 57 74 88 94 95 98 100
20 24 22 22 25 43 20 21 33 22 20 21 23 27 29 32 36 40 42 45 52 58 60 61 56 54 54 56 58 63 66 66 70 70 70 69 67 54 54 57 59 73 89 87 81 82 78 80 81
21 25 47 61 52 53 26 19 33 24 22 20 25 31 35 37 38 38 39 42 46 51 54 57 60 60 57 57 63 68 71 75 75 76 76 71 61 71 64 82 89 95 92 82 77 77 88 88 97
24 26 60 55 63 44 20 22 32 24 25 26 29 32 34 37 38 39 40 43 46 49 52 56 63 63 58 60 65 73 76 75 78 81 77 70 74 75 74 76 74 85 95 99 92 97 97 99 95
28 35 23 42 56 61 25 29 27 25 26 26 28 29 31 32 34 37 40 42 47 50 53 59 63 60 60 63 63 68 71 72 73 76 68 72 79 77 80 83 87 86 93 87 93 94 86 80 95
25 21 40 50 63 46 24 22 38 32 29 28 26 28 29 31 34 38 40 45 49 51 56 58 58 58 60 62 63 65 67 67 69 67 72 78 79 70 74 88 95 100 94 95 94 97 86 98 95
28 29 29 26 40 54 51 30 21 22 25 27 26 26 30 36 38 39 45 51 55 56 57 57 57 55 56 59 63 63 59 58 61 71 76 76 66 71 73 81 84 78 76 79 79 78 72 74 76
24 27 27 62 45 58 58 43 20 23 24 28 30 32 37 40 46 50 55 58 58 57 59 57 51 52 59 61 61 57 55 56 64 72 70 70 76 82 81 75 74 76 77 80 78 70 65 70 80

GFSSGP_850_rhum_021.txt.gz
RH
3 2 12 15 22 22 20 16 24 26 22 30 36 44 48 45 52 72 79 68 70 72 70 68 70 72 76 81 76 66 68 71 73 71 66 61 58 53 52 54 58 58 55 47 35 32 30 30 32
2 13 15 15 23 25 22 24 26 21 20 31 34 39 43 49 53 70 77 78 66 64 63 61 62 70 65 50 46 47 49 53 52 44 40 40 39 36 37 40 39 37 36 33 27 21 18 24 29
4 15 14 20 22 23 24 25 23 18 21 27 35 36 40 44 47 70 76 74 74 61 54 55 44 32 29 28 28 29 33 34 35 36 34 34 33 35 36 36 34 33 28 17 14 16 16 23 31
12 13 11 16 17 19 27 24 20 22 23 30 34 46 42 44 53 62 65 65 59 41 23 21 19 21 21 22 24 27 30 34 34 36 36 36 37 36 34 34 36 32 21 15 16 16 15 15 15
16 17 17 18 17 24 21 19 20 27 25 40 42 47 42 43 47 54 55 51 20 18 18 20 21 21 22 22 23 24 27 32 35 37 38 37 36 33 33 37 38 30 23 19 20 20 20 19 18
16 13 19 19 23 20 18 14 25 26 21 43 47 45 39 37 39 43 42 40 16 19 22 23 24 24 23 20 18 20 22 29 35 37 37 36 39 41 45 39 40 31 28 24 24 24 22 22 21
18 20 20 17 20 21 16 12 14 21 18 37 44 48 40 37 36 38 41 37 23 24 26 31 29 37 34 21 14 12 19 22 24 28 37 67 70 68 67 53 52 45 42 38 34 36 40 32 26
13 15 15 14 20 16 12 9 16 15 16 32 36 47 49 41 36 36 38 41 48 50 52 60 54 58 55 43 17 15 25 38 59 61 77 78 71 70 66 77 72 70 58 61 64 60 55 52 51
14 14 15 12 13 12 8 8 8 14 16 26 27 40 44 38 36 36 40 45 52 57 58 60 58 51 57 54 60 49 52 54 57 60 76 73 72 72 74 77 74 70 63 65 65 60 66 68 64
10 14 9 8 9 8 7 7 7 13 18 38 40 42 44 39 37 38 42 44 50 56 59 59 56 42 52 53 59 64 66 69 73 70 64 72 78 79 75 74 70 61 64 62 57 56 59 66 65
7 10 6 7 6 6 6 7 9 12 16 34 44 44 41 41 39 39 40 45 48 51 58 58 46 55 61 54 58 63 66 63 70 82 73 51 67 71 66 50 47 49 54 57 57 58 57 59 62
8 6 5 6 6 5 6 6 6 10 12 19 40 42 43 42 40 38 38 41 46 49 56 57 52 25 52 60 58 61 66 65 70 71 54 32 40 42 36 39 37 42 50 53 55 51 49 50 54
7 7 6 5 7 7 6 7 8 9 11 17 35 40 40 40 39 39 39 39 41 47 50 48 49 25 26 35 49 50 60 64 66 56 47 33 34 35 34 34 38 40 43 47 48 50 47 53 61
6 6 6 6 8 8 8 10 10 10 10 17 31 36 35 35 37 37 37 38 38 41 45 50 64 64 47 42 32 28 48 62 57 54 47 43 39 38 37 37 39 43 50 56 58 54 47 53 62
8 11 11 10 9 10 10 13 12 8 9 15 20 29 30 31 34 35 33 34 35 40 49 65 58 65 48 65 41 48 65 54 55 54 50 50 54 52 53 49 46 49 48 46 47 43 40 46 44
11 14 19 14 12 11 12 19 13 9 9 12 13 17 25 28 31 32 30 34 38 38 48 56 56 60 68 66 58 49 51 50 46 54 56 58 62 61 60 55 49 47 47 46 44 46 50 61 67
16 21 20 16 13 15 14 18 13 10 10 10 12 12 15 22 25 30 32 32 34 36 38 53 67 69 79 63 56 52 53 51 49 54 49 51 61 58 54 50 49 47 46 46 53 55 59 64 63
20 17 21 21 14 11 12 14 14 11 13 13 12 12 16 30 35 35 33 32 32 34 36 58 64 75 65 59 56 51 52 50 50 49 50 52 52 52 52 51 52 53 52 49 50 47 50 49 43
14 15 22 19 15 14 15 13 18 16 14 14 21 31 40 40 40 38 39 37 37 43 37 46 56 59 62 49 47 44 48 45 45 46 50 54 53 53 54 58 59 55 51 53 52 49 43 42 40
14 20 27 19 16 15 16 18 20 19 18 22 34 37 40 42 42 44 47 46 48 52 54 56 56 50 44 44 45 44 43 44 52 54 58 60 61 61 62 62 58 52 54 52 52 52 54 45 53
27 30 28 24 21 19 19 22 23 20 22 27 30 33 33 39 44 42 43 44 42 42 44 43 43 42 43 42 48 48 45 48 52 53 55 57 58 62 62 60 55 55 46 47 50 50 50 78 86
33 28 27 26 28 35 20 34 27 25 28 28 28 29 34 40 45 47 48 48 48 50 51 52 53 52 52 53 54 54 56 57 59 62 64 62 62 62 62 60 56 36 37 38 52 85 91 91 89
29 24 27 27 32 33 31 33 30 26 33 34 34 33 35 37 40 45 47 47 53 55 53 50 54 57 58 57 57 59 64 65 67 67 68 70 70 68 62 40 45 60 76 90 93 92 75 74 76
21 29 33 33 37 62 48 39 45 32 32 34 32 31 34 37 39 42 45 49 52 54 55 57 57 57 59 61 64 66 68 71 73 73 74 72 70 51 51 69 81 82 80 82 83 79 72 70 88
27 41 73 69 85 74 47 42 56 36 29 32 38 39 39 39 40 43 48 50 51 52 54 57 58 62 62 59 60 66 71 74 75 74 71 70 53 62 61 64 67 78 75 75 69 90 81 95 86
34 35 75 63 81 68 41 46 45 35 32 35 36 37 37 38 38 39 40 42 46 50 51 53 55 57 61 60 62 62 64 69 70 68 66 61 68 73 78 67 70 94 88 96 100 100 94 88 80
34 43 25 61 62 80 48 40 34 34 33 31 32 35 38 38 39 40 44 47 50 51 54 58 61 60 59 60 62 63 64 63 62 60 61 68 76 79 66 53 74 87 87 82 78 74 74 86 80
30 24 56 66 63 56 44 50 60 42 42 39 33 31 34 39 43 44 46 49 52 54 56 57 58 58 57 57 58 60 61 62 56 57 62 72 74 65 51 66 73 80 76 74 76 80 78 74 66
38 41 38 39 64 75 78 50 26 42 48 44 38 38 41 46 49 51 54 55 55 56 56 57 56 53 52 56 59 56 59 48 53 57 60 62 64 44 71 73 68 64 58 55 55 58 60 62 76
26 34 40 74 55 79 82 61 31 49 39 37 40 45 45 46 48 51 55 59 58 58 58 56 49 48 51 51 55 60 53 52 55 57 58 60 56 52 67 68 65 56 52 54 56 60 60 62 72

GFSSGP_850_rhum_024.txt.gz
RH
6 2 11 15 20 23 23 18 26 34 46 44 43 46 54 53 55 81 91 80 74 68 71 71 70 67 68 71 64 62 58 57 56 47 40 38 36 34 33 34 32 31 31 30 27 23 18 17 21
2 13 14 16 24 26 31 24 37 37 42 42 44 52 59 77 88 97 90 79 70 68 69 70 69 68 64 46 40 35 34 34 32 33 30 30 30 29 30 28 27 28 26 17 14 14 14 16 23
3 14 14 21 25 28 33 25 24 31 37 36 41 43 46 64 81 92 75 72 67 65 67 64 64 41 25 23 24 27 30 29 32 31 29 30 30 29 23 24 28 29 19 13 13 13 13 13 14
12 13 12 17 19 18 29 26 33 36 39 40 42 46 51 67 68 75 84 75 58 61 61 40 22 20 21 23 24 27 29 32 32 32 32 33 31 24 22 28 30 26 21 17 17 18 19 19 18
14 17 18 18 21 24 22 24 27 39 46 44 40 46 49 63 70 72 63 59 46 32 20 22 22 23 23 24 26 25 25 27 30 34 36 32 27 24 25 28 30 27 25 23 22 23 22 21 21
14 15 19 20 22 24 17 25 38 47 45 43 43 44 51 63 62 60 49 26 16 19 22 24 25 23 20 16 14 14 19 27 30 29 26 23 34 42 39 37 38 38 39 36 34 38 39 35 28
18 21 19 17 16 20 18 22 33 46 48 47 39 43 46 60 54 47 29 18 22 24 26 29 33 32 18 10 8 14 17 20 22 25 38 44 41 41 49 51 53 50 45 47 52 46 43 44 43
15 17 16 15 22 23 15 17 26 39 43 44 37 48 41 43 42 41 33 22 27 39 50 48 42 40 30 19 13 18 25 31 38 43 57 55 55 53 52 55 55 54 56 51 48 42 41 45 52
14 18 19 15 15 14 10 14 20 36 44 37 40 38 36 37 40 38 39 48 54 58 57 55 40 48 55 59 57 55 55 55 48 49 58 51 46 55 49 48 49 50 52 51 47 44 46 47 49
14 18 12 10 11 10 8 11 14 28 42 48 44 40 37 38 37 38 46 53 56 60 59 57 35 49 53 59 64 63 64 62 65 63 52 39 52 61 61 53 41 38 39 43 46 46 47 46 45
11 11 7 8 8 7 8 8 14 36 44 45 47 40 37 36 37 38 45 46 52 58 56 60 44 45 51 54 64 67 69 70 68 68 65 43 45 46 38 35 32 37 43 45 46 47 50 48 48
7 7 6 8 7 7 8 8 8 13 31 31 40 42 38 38 37 39 43 47 54 57 56 61 35 29 48 59 58 62 62 63 68 72 62 36 40 44 36 35 39 43 45 46 48 50 52 52 45
8 7 6 8 8 6 7 8 10 12 26 32 42 42 40 38 38 38 40 45 51 54 59 58 33 55 46 51 54 60 62 62 63 66 53 42 35 37 39 47 50 52 54 57 62 65 63 58 45
6 6 6 7 8 8 10 11 9 16 30 40 41 40 36 33 36 39 39 40 49 56 60 58 48 30 50 43 46 45 59 69 67 58 52 52 50 49 48 50 50 50 50 50 50 56 54 45 44
7 9 10 9 9 10 11 13 14 18 37 43 42 38 35 33 36 38 39 40 41 51 55 56 52 47 43 62 52 46 54 60 58 57 55 54 56 58 53 54 54 50 45 43 43 43 44 44 43
13 16 17 13 12 11 12 18 13 17 35 44 42 39 36 35 36 36 37 39 40 42 52 56 56 56 54 55 60 55 50 56 52 55 57 57 58 55 61 61 56 51 48 50 49 48 44 45 46
20 20 21 16 14 13 14 17 15 10 20 30 37 38 40 40 40 40 39 39 42 44 53 58 64 60 57 60 62 54 55 58 55 58 53 60 68 65 61 56 53 52 53 55 54 48 43 37 31
21 22 22 20 17 16 17 15 16 10 10 14 18 28 37 40 46 44 42 44 45 56 62 66 61 57 66 64 60 61 63 57 52 53 56 57 56 56 56 58 59 59 59 57 50 48 44 34 36
16 23 24 19 15 14 18 19 20 16 19 37 49 53 54 57 57 59 62 65 67 71 72 73 82 73 68 60 56 55 51 47 49 56 57 57 58 59 59 58 61 61 58 54 54 52 40 37 37
22 26 25 21 20 16 23 22 22 28 40 48 51 52 52 53 55 54 52 52 55 55 55 54 54 52 48 46 46 46 48 50 56 58 59 59 59 58 60 61 62 61 58 56 51 32 32 39 63
35 32 29 25 23 22 24 27 35 37 41 45 47 45 42 42 45 46 46 48 51 48 45 43 47 50 49 49 50 50 49 48 50 51 52 51 56 59 64 67 66 58 43 33 42 59 78 88 81
38 28 27 26 31 29 22 40 30 38 41 40 47 48 46 44 43 41 40 40 38 39 40 40 41 45 48 53 53 52 52 53 54 60 64 67 70 72 70 52 30 30 34 58 80 94 79 80 75
30 25 27 27 33 37 38 41 33 38 47 47 47 50 49 45 42 42 41 43 46 47 48 48 45 46 47 53 57 60 62 64 68 71 74 76 72 61 40 35 44 53 48 57 74 75 65 92 92
22 29 44 40 45 62 47 44 44 43 43 44 44 49 47 44 44 42 44 46 48 50 52 56 57 56 59 59 58 58 61 67 72 72 70 66 61 44 40 52 64 61 51 83 87 91 90 93 82
31 49 70 68 78 69 51 57 53 45 38 40 48 46 45 44 41 42 44 47 49 54 56 58 59 62 64 63 61 61 62 64 66 67 64 57 46 48 58 70 64 44 62 85 87 80 72 66 67
34 44 73 65 71 63 42 55 52 44 43 41 40 40 40 41 42 45 50 56 55 54 55 56 57 59 60 61 61 61 62 62 61 56 50 39 47 58 71 70 39 43 55 69 71 70 71 71 74
34 41 36 62 68 77 57 45 36 39 42 40 40 41 41 46 45 49 54 54 56 56 56 57 58 59 59 58 59 60 59 57 55 53 41 40 47 62 68 52 43 53 62 67 61 56 55 59 60
26 28 52 67 58 54 51 52 62 51 47 43 41 45 46 47 49 50 52 54 56 57 57 57 57 56 55 56 56 53 48 54 59 54 50 49 51 62 65 48 46 66 64 61 54 55 60 64 61
38 42 44 47 68 72 79 55 38 48 52 50 50 48 48 49 53 55 57 58 58 57 53 55 54 52 50 46 45 48 49 52 55 54 58 58 60 62 64 50 60 66 61 52 53 55 58 60 63
28 36 47 71 46 81 81 58 42 48 43 39 49 49 50 52 59 60 60 59 55 48 45 43 44 43 44 44 42 46 50 54 56 60 67 63 62 66 72 77 65 65 50 53 54 53 55 61 66

GFSSGP_850_rhum_027.txt.gz
RH
4 2 10 15 20 26 26 21 30 39 52 48 47 51 69 88 74 76 91 81 76 70 78 77 70 68 66 65 57 57 57 51 41 34 32 29 28 27 27 27 25 24 24 18 14 13 14 18 24
3 14 13 16 24 28 35 26 43 45 49 46 50 59 68 91 98 97 97 91 77 75 79 77 74 69 68 54 46 42 35 30 30 30 29 27 27 27 20 18 24 24 16 12 12 12 12 13 14
10 14 13 22 28 26 31 30 47 42 40 40 44 47 58 97 85 86 86 86 86 84 78 78 74 64 39 30 29 31 31 29 28 27 26 26 26 18 16 22 26 22 17 16 16 18 18 18 17
12 13 13 18 21 19 24 27 40 43 42 42 43 51 63 80 86 79 83 85 85 83 76 73 49 26 24 26 27 26 25 26 26 26 26 27 19 16 20 24 24 22 21 21 21 22 22 22 21
16 14 18 19 18 28 25 32 38 45 45 44 45 51 68 73 79 76 74 78 72 72 59 31 25 23 22 22 22 20 21 24 26 27 26 19 21 25 28 31 31 32 32 32 34 36 37 36 28
14 15 21 32 28 31 23 42 46 45 45 48 54 58 80 85 74 73 70 71 60 28 25 24 24 22 20 18 16 16 19 23 23 19 22 35 38 39 38 38 36 30 35 40 41 33 38 43 45
17 19 18 18 36 31 28 26 44 42 45 45 47 53 98 84 59 49 54 32 23 23 24 25 23 17 12 10 11 13 15 15 19 29 39 39 41 41 34 35 33 30 32 33 32 32 32 33 38
16 17 16 16 36 42 23 23 42 46 49 40 40 55 90 65 40 25 22 23 25 27 32 36 31 23 11 10 13 16 22 28 34 43 48 48 52 47 42 36 33 35 37 37 37 39 39 39 35
15 21 20 15 33 34 26 17 36 43 41 41 42 46 55 47 29 22 24 28 40 49 49 35 38 42 38 44 42 44 46 42 39 45 50 47 42 39 36 35 36 37 41 42 45 46 48 46 45
18 24 18 13 14 20 17 28 38 44 46 48 40 46 54 42 37 29 24 37 53 54 56 48 28 42 59 62 62 60 52 51 54 54 41 37 41 46 42 38 39 43 49 55 57 57 59 61 58
15 14 8 9 11 13 14 26 26 46 50 44 41 46 46 44 41 36 36 36 38 53 54 52 41 50 55 58 56 56 58 49 49 50 47 34 41 45 40 41 42 51 55 57 57 57 60 61 60
8 7 8 8 8 8 10 12 32 21 35 34 32 37 42 43 38 37 37 41 53 56 56 55 42 50 50 49 54 50 50 60 56 53 58 44 36 39 39 45 49 55 57 56 56 52 51 53 51
8 7 8 7 7 7 8 10 12 14 34 37 35 38 39 39 37 36 29 41 55 59 58 58 50 47 49 50 52 54 54 61 65 64 66 54 40 42 45 46 50 47 48 46 45 44 44 44 43
7 7 8 8 8 9 11 11 12 25 40 42 40 38 38 37 36 34 38 44 54 58 58 60 48 47 53 48 51 55 62 63 64 68 67 61 58 57 58 57 57 56 55 51 47 47 50 49 48
7 10 10 9 9 10 11 13 15 35 44 42 41 40 39 38 36 34 40 44 49 54 56 60 47 48 49 50 57 58 55 65 63 63 62 61 60 64 67 68 66 62 59 54 53 54 55 54 51
14 17 17 12 11 12 12 16 14 38 44 46 44 42 41 42 41 39 40 41 46 52 60 67 50 60 63 64 66 61 67 67 63 63 63 63 67 70 72 66 63 60 58 56 56 57 55 54 46
23 20 18 17 13 14 12 14 15 31 44 48 50 50 49 48 47 45 44 42 43 48 59 72 54 68 71 67 69 61 63 57 56 58 57 65 70 69 66 62 59 57 57 58 59 59 55 49 47
19 21 21 20 17 16 16 17 16 29 45 43 45 45 46 46 47 44 41 40 44 49 63 70 70 61 66 62 68 61 61 62 58 58 59 61 60 59 58 58 59 60 60 60 60 57 51 51 45
17 23 23 20 17 18 18 25 37 26 29 49 53 54 60 62 70 57 50 49 52 57 60 61 60 72 74 69 69 65 66 55 53 55 56 58 60 60 58 58 60 63 63 63 57 48 40 29 28
25 26 24 22 24 21 26 38 51 52 58 59 64 66 67 68 67 73 74 72 70 70 67 63 62 64 61 57 55 52 52 51 52 54 55 54 54 58 64 68 69 57 53 33 19 17 26 43 65
36 31 29 25 26 25 27 36 51 49 56 59 62 61 59 57 58 58 57 57 55 51 48 44 46 45 44 43 46 50 52 52 51 50 52 59 63 69 74 67 44 25 24 25 20 29 49 65 57
35 29 27 27 28 31 25 49 44 44 52 55 60 57 56 54 53 51 49 50 44 42 44 45 45 43 44 44 44 42 43 46 53 59 64 70 74 71 62 46 27 31 30 26 28 43 57 71 75
30 28 28 29 37 39 43 50 44 47 55 56 59 56 51 51 47 44 43 45 48 49 49 50 52 53 55 56 58 57 58 59 63 68 73 68 60 51 34 29 31 31 27 26 33 44 62 74 82
23 35 46 52 49 63 50 45 52 54 54 56 56 56 52 49 46 45 49 50 52 56 53 55 57 58 59 58 61 62 61 62 65 64 58 42 37 32 32 32 33 41 27 36 46 59 66 63 62
35 48 69 69 76 71 49 56 53 44 44 48 56 55 48 47 50 54 58 56 56 58 60 62 60 57 58 60 62 62 62 62 62 53 45 50 50 46 39 41 55 57 35 38 50 63 61 58 59
37 43 73 59 71 63 48 60 56 50 43 42 48 47 49 55 57 59 57 58 58 59 60 58 57 58 59 60 60 60 60 55 44 46 51 55 53 54 53 54 66 57 40 45 57 62 58 57 59
35 45 40 70 72 79 64 49 43 46 53 48 45 45 50 52 53 54 58 58 55 54 53 55 56 56 58 58 58 54 46 44 46 50 54 55 58 60 64 69 67 52 57 54 64 58 56 58 62
28 35 55 68 57 56 54 59 67 54 56 52 54 54 52 50 51 55 55 54 55 56 55 52 48 53 54 50 44 44 48 51 53 55 57 60 63 65 66 73 77 81 86 66 57 52 53 56 58
39 41 50 54 70 72 77 60 42 53 55 56 59 55 54 55 56 57 58 58 58 56 50 44 48 48 44 44 42 43 52 57 57 58 61 68 69 73 80 83 94 97 82 65 52 53 50 48 53
32 38 45 62 45 83 79 60 39 53 51 50 54 52 54 58 62 60 58 57 56 50 46 45 45 45 44 42 41 41 51 56 42 39 49 72 74 72 77 81 89 95 74 64 54 52 57 58 64

GFSSGP_850_rhum_030.txt.gz
RH
5 3 17 16 19 24 25 22 27 43 57 57 59 67 88 97 74 72 92 85 84 83 84 82 76 70 67 66 63 59 53 46 35 30 26 24 26 26 20 18 22 19 13 11 10 10 11 12 13
2 14 17 16 23 26 32 22 42 51 61 55 58 66 75 96 92 100 92 85 86 80 84 82 79 72 68 59 50 38 32 27 26 25 24 24 25 16 18 23 21 16 14 15 17 18 17 16 14
9 16 15 25 29 26 26 36 49 52 43 42 46 52 71 94 99 100 91 89 85 84 84 85 78 72 56 36 23 25 26 26 26 24 25 26 16 15 20 22 21 20 19 20 20 21 21 21 20
14 14 14 20 22 21 21 43 43 53 40 37 35 54 54 85 89 89 84 84 85 85 88 83 78 49 25 23 25 26 25 23 22 25 26 16 16 20 23 24 24 26 28 30 34 36 37 33 27
18 14 22 20 19 26 24 38 47 46 45 49 41 62 69 80 86 78 81 87 83 90 86 78 40 25 24 24 24 21 17 20 23 23 18 25 28 30 36 37 34 35 42 39 34 36 42 46 50
17 16 24 48 39 32 41 42 48 46 48 49 59 66 86 80 77 75 82 83 87 84 59 27 25 25 22 20 14 12 16 19 18 22 34 34 34 32 31 27 27 30 30 29 31 31 33 35 38
17 21 22 54 48 34 28 40 47 47 45 48 60 74 100 82 79 73 78 82 80 37 23 25 24 18 14 11 11 14 16 19 26 38 38 38 36 32 30 30 30 31 32 33 33 34 36 38 40
17 20 21 23 50 46 25 45 42 47 46 50 53 92 96 82 69 76 81 60 29 26 26 25 18 11 8 10 14 17 20 28 43 44 40 40 36 34 33 32 34 36 38 40 44 45 45 45 43
16 21 22 18 42 42 27 30 39 46 44 44 45 56 71 63 65 62 45 30 29 32 35 29 22 13 11 13 20 30 36 37 41 41 40 44 43 42 41 40 40 42 47 49 51 54 56 54 50
20 24 18 15 30 32 29 27 29 45 46 46 49 62 65 42 42 31 27 28 38 46 37 35 43 37 42 41 41 41 40 39 46 45 38 42 46 46 45 44 45 47 51 54 54 55 54 54 52
18 20 13 9 17 25 23 33 37 48 50 45 55 65 59 38 26 23 25 29 35 49 48 34 44 51 55 54 51 50 44 50 54 55 47 38 46 48 45 46 46 50 51 50 52 52 51 49 48
14 11 10 9 11 23 27 26 41 38 31 33 39 49 44 32 26 22 24 32 44 48 51 37 46 52 56 58 55 56 53 54 61 59 58 48 39 44 43 45 49 49 51 54 54 52 50 49 49
11 7 10 8 10 18 17 17 37 22 35 35 44 47 42 38 35 31 22 32 45 51 55 48 46 52 57 63 65 64 64 67 69 68 71 60 53 51 50 53 53 57 57 58 56 52 50 52 54
8 9 9 8 9 9 12 14 14 21 41 36 39 43 42 42 39 37 36 34 46 52 58 57 50 59 63 66 66 66 70 73 75 79 78 70 63 59 62 68 70 68 64 62 59 56 56 57 57
8 9 10 10 10 13 11 12 16 36 41 37 39 41 44 46 43 39 36 35 45 52 60 62 57 68 67 67 65 66 64 71 78 77 81 75 69 68 71 74 76 71 66 62 58 58 59 58 57
15 17 14 11 11 14 12 15 14 45 41 43 43 47 48 47 46 41 40 38 44 51 60 67 66 71 64 70 75 64 67 67 69 70 79 74 72 70 72 74 67 62 59 59 60 59 58 56 53
22 20 18 15 13 14 13 14 18 50 49 51 47 46 45 44 43 42 40 39 42 47 56 73 78 79 86 73 80 71 72 75 64 63 66 66 67 70 68 62 59 59 58 57 57 54 52 49 43
18 20 20 19 16 15 16 29 45 39 53 55 53 53 52 50 48 47 46 46 46 44 55 81 80 81 88 90 81 70 65 63 62 62 63 63 60 58 58 57 56 58 61 60 44 32 23 15 14
19 20 21 22 18 24 51 61 64 45 52 61 62 58 56 54 52 50 49 54 56 67 79 89 86 94 85 85 72 68 66 62 55 55 54 51 49 50 53 56 65 68 56 34 18 15 13 10 10
26 27 25 24 26 28 48 56 65 64 66 65 67 73 72 74 76 80 86 88 88 84 88 74 76 66 62 59 54 50 48 48 49 50 49 51 55 60 67 69 55 37 21 19 18 14 15 17 20
35 30 29 27 25 29 32 42 60 55 67 69 71 72 79 81 80 74 68 64 65 59 50 46 44 46 41 40 40 41 43 45 46 50 55 58 68 65 48 33 24 23 23 19 15 13 15 18 22
32 30 28 30 28 38 30 42 50 56 66 69 68 66 62 58 57 55 55 52 43 39 40 43 44 44 48 50 52 52 52 53 55 58 62 71 48 37 36 45 38 28 29 27 22 20 30 46 58
30 32 33 33 42 41 45 50 53 62 69 70 69 62 57 51 48 47 48 44 45 48 50 49 51 54 56 57 58 60 62 63 65 68 66 49 42 46 42 45 45 42 44 48 42 30 32 45 50
30 41 49 55 52 63 52 46 52 65 63 64 63 62 54 55 54 50 48 50 48 50 53 56 58 60 58 58 59 62 64 65 65 58 44 43 47 50 43 45 49 55 57 59 48 36 40 51 56
41 50 70 70 76 72 50 53 49 46 52 57 62 61 56 55 53 51 52 52 58 66 60 60 61 58 58 58 61 62 63 60 51 44 46 50 54 53 52 54 58 63 68 53 49 54 48 56 53
39 44 73 57 77 68 50 61 53 53 43 46 51 50 55 55 58 59 60 64 63 64 63 60 58 56 55 57 60 59 50 44 46 53 56 57 59 61 61 62 67 74 68 60 79 75 58 48 50
39 47 43 72 72 80 68 53 50 56 59 53 52 52 52 55 56 58 64 66 63 60 58 57 54 51 54 58 51 45 47 53 58 58 58 59 61 66 70 71 78 78 88 96 92 92 59 53 56
29 42 53 68 56 53 58 61 70 62 64 60 58 55 56 56 59 64 66 60 58 58 55 53 48 48 54 45 44 46 47 51 59 59 57 51 56 69 76 81 82 78 80 90 85 87 71 57 54
41 44 53 58 70 68 75 69 51 59 59 61 56 52 52 56 62 62 60 58 57 55 52 49 43 44 44 45 44 41 44 53 53 35 31 32 34 33 38 59 72 74 82 93 96 75 65 59 59
34 38 43 59 42 84 79 60 45 57 52 52 52 53 59 62 62 60 59 58 56 53 50 41 44 47 45 40 41 45 45 38 33 36 41 44 47 45 46 71 82 90 90 89 79 84 86 64 67

GFSSGP_850_rhum_036.txt.gz
RH
17 8 4 19 16 16 17 15 21 40 53 51 49 46 50 56 51 66 99 100 99 98 94 83 80 78 75 71 70 74 72 64 48 33 27 25 23 17 20 15 12 13 15 17 18 18 18 17 16
10 3 16 15 16 16 15 16 24 44 56 56 56 48 42 56 84 99 98 98 98 93 98 82 78 80 76 73 75 72 61 41 30 27 26 20 19 21 18 17 17 19 21 23 24 25 24 24 24
5 10 14 10 11 14 17 24 41 47 45 49 57 61 62 68 91 85 92 92 96 99 98 84 78 79 77 75 70 55 40 34 30 28 20 21 24 22 21 22 25 31 33 33 32 33 33 34 33
12 14 12 11 11 12 24 38 41 41 47 46 58 70 65 54 56 53 56 89 98 96 99 76 81 81 76 68 49 43 36 31 30 23 22 24 24 25 29 35 37 31 29 30 30 30 28 26 25
15 12 10 10 14 18 20 37 38 38 58 42 44 44 65 90 74 73 78 89 97 97 99 81 85 78 65 48 42 35 29 30 26 22 26 28 32 35 36 33 29 30 31 31 31 30 29 31 33
10 11 9 12 20 28 25 36 36 41 38 35 41 48 80 94 95 87 92 94 92 84 92 87 80 66 48 41 33 26 29 30 24 30 34 36 34 33 32 31 31 32 33 34 35 35 36 36 36
10 8 10 20 29 35 37 38 34 33 31 33 46 41 98 96 96 99 99 88 82 86 90 91 72 51 43 34 25 29 30 28 39 38 38 37 34 35 34 32 33 34 36 37 40 41 41 41 39
13 10 19 24 30 41 36 37 35 34 30 48 49 51 94 99 98 98 91 98 84 86 94 87 92 82 35 24 28 31 31 46 43 45 41 41 37 34 35 37 36 38 42 43 42 43 43 42 43
16 12 17 28 35 37 32 31 35 34 41 45 55 62 80 97 94 85 88 85 84 91 89 88 87 85 76 68 32 34 46 54 50 48 48 49 77 54 57 40 39 41 43 44 45 43 43 44 48
13 14 13 13 20 22 27 24 32 33 35 42 56 80 96 90 77 79 86 83 72 74 68 36 31 27 25 62 36 37 58 76 85 75 59 87 60 76 76 42 43 45 47 47 46 45 46 51 57
12 14 10 10 17 20 23 25 29 30 30 35 42 84 99 92 98 85 91 73 65 73 70 62 19 19 28 51 68 81 86 68 65 58 69 68 66 60 84 53 53 50 50 55 56 57 54 52 52
15 11 11 8 20 20 20 24 30 30 28 35 38 76 94 91 94 81 56 53 56 65 66 37 19 24 32 68 79 64 84 74 93 73 67 66 76 62 57 57 53 54 56 56 58 62 59 57 56
14 11 10 10 17 21 22 24 27 30 36 44 61 81 77 70 62 45 43 48 57 60 65 46 38 46 50 62 69 75 76 89 84 84 78 75 68 67 64 58 61 64 66 67 67 68 68 65 65
12 10 9 10 13 22 22 28 31 35 43 58 70 65 52 44 39 40 42 46 57 63 72 58 58 55 61 68 71 74 76 78 80 78 67 68 80 74 70 70 72 74 73 70 65 61 60 64 63
10 10 11 14 17 17 20 22 17 35 43 53 51 47 43 33 35 36 39 45 58 67 81 74 62 65 66 68 73 72 66 72 74 71 72 71 84 84 77 78 77 71 63 60 60 56 56 57 54
9 9 14 13 15 14 17 15 18 37 36 39 40 43 44 41 40 40 41 43 51 66 82 69 68 74 81 89 82 73 58 62 73 83 79 83 84 78 76 69 62 60 59 55 51 52 50 45 48
12 10 10 12 11 14 10 13 22 40 34 39 42 43 43 42 45 51 62 54 51 68 97 74 81 80 91 81 74 77 64 77 83 79 72 72 70 65 61 59 60 59 52 44 40 47 52 50 52
13 10 10 10 11 11 11 20 22 39 33 34 39 41 42 45 50 67 70 59 64 82 98 77 82 94 90 78 64 71 82 79 70 68 68 64 60 55 60 62 56 44 49 49 31 38 53 50 59
10 14 12 12 15 13 15 18 22 33 38 35 38 42 45 50 65 72 52 50 71 84 74 66 71 83 88 55 92 76 78 68 64 58 58 59 57 63 62 53 48 42 52 27 36 46 48 50 61
14 15 18 19 16 17 21 24 28 29 35 37 38 42 47 56 64 74 71 63 74 88 84 72 82 71 67 66 70 74 61 55 57 56 57 59 64 62 51 43 53 48 50 60 65 66 59 48 56
20 18 21 18 20 20 22 25 32 36 43 50 52 47 50 54 65 80 92 98 97 95 80 67 71 62 49 52 50 49 52 52 54 55 60 66 63 48 49 41 36 46 61 55 66 66 69 62 55
22 22 20 20 19 19 20 18 26 34 34 42 50 56 57 63 74 83 84 93 92 72 53 78 70 64 48 51 64 62 60 62 69 74 78 70 50 43 35 33 39 59 67 71 68 62 82 77 66
26 22 21 20 20 23 22 20 21 34 36 37 45 54 63 70 73 69 62 65 69 79 81 74 74 73 63 59 74 71 71 71 74 75 68 67 63 42 50 65 70 73 72 75 83 88 83 81 80
28 27 27 26 25 29 22 25 13 17 25 37 46 59 65 66 64 57 51 55 60 68 74 75 70 71 59 62 61 65 72 72 66 61 57 51 56 61 66 76 82 84 85 87 86 90 88 94 92
26 24 25 32 35 30 34 30 16 26 29 34 47 58 61 61 55 50 52 56 63 69 69 73 71 73 66 62 62 71 70 64 59 61 56 61 58 63 67 81 81 78 79 82 85 91 91 93 92
25 23 25 26 31 29 34 33 26 32 31 38 45 52 55 55 51 48 53 57 62 67 70 69 69 73 68 62 67 66 50 61 58 61 64 69 71 70 71 66 66 66 69 75 83 89 90 86 88
29 27 30 42 56 47 25 27 26 33 33 39 44 48 49 47 48 50 57 61 64 69 74 76 72 70 53 50 44 42 44 39 47 49 50 63 59 56 54 61 59 58 65 75 80 89 91 85 78
28 27 34 34 43 30 20 23 17 35 35 36 42 46 43 43 48 54 59 69 72 71 68 65 62 49 61 61 46 45 44 42 42 40 52 56 57 56 58 59 62 68 74 78 87 90 96 95 89
34 32 31 27 35 26 23 14 25 27 30 33 38 42 40 43 51 56 63 72 72 69 68 59 47 61 55 46 48 42 41 40 38 49 57 58 60 63 62 70 76 80 81 93 94 89 93 95 90
27 28 27 27 30 42 42 20 21 28 32 34 34 39 40 47 53 61 68 69 65 61 60 49 54 54 49 45 45 47 40 41 55 55 54 60 67 62 77 88 87 87 99 100 96 98 99 97 93

GFSSGP_850_rhum_042.txt.gz
RH
9 12 13 14 12 14 16 13 14 36 45 36 34 44 57 65 68 84 90 83 76 76 63 63 60 69 67 59 58 63 71 70 60 38 27 23 15 16 12 12 14 15 18 21 24 25 25 25 25
8 21 11 8 14 17 14 27 49 46 42 39 36 38 50 77 78 90 89 89 91 79 71 66 66 66 65 67 70 75 70 57 35 26 23 14 18 15 15 17 20 25 26 25 24 21 19 19 19
10 14 9 9 12 18 19 44 48 34 34 35 37 42 51 78 81 89 86 96 90 88 92 74 77 76 74 74 79 73 54 33 28 24 15 19 18 18 20 25 25 23 25 22 20 22 25 27 27
14 11 8 13 14 11 22 39 32 31 33 34 36 44 59 62 67 89 92 94 91 90 84 79 83 79 78 82 76 53 32 27 25 17 18 20 20 24 29 24 24 23 21 22 25 28 30 32 34
13 9 9 11 12 10 11 27 30 29 30 31 32 43 57 52 53 90 92 91 86 91 85 79 83 79 78 68 53 36 30 28 23 18 22 23 28 31 25 24 24 24 25 28 32 33 33 35 35
11 8 13 14 11 10 12 25 32 37 57 63 29 38 51 61 52 69 88 92 98 98 85 78 79 79 68 45 43 36 30 27 21 24 27 34 33 28 26 29 27 27 30 34 35 35 36 37 36
10 10 12 12 12 15 22 38 50 58 43 51 29 51 67 67 73 59 78 87 89 85 80 81 86 78 52 45 39 33 32 23 27 34 35 32 33 31 33 30 30 34 37 38 39 39 39 39 46
8 9 12 10 10 36 62 58 45 60 46 28 26 35 55 82 81 59 65 86 79 72 88 88 76 60 45 37 32 34 28 30 41 39 36 38 39 38 34 34 35 37 39 42 43 45 45 52 58
9 11 13 12 20 59 55 69 52 31 26 34 37 54 64 84 78 71 58 82 95 98 83 69 54 44 39 33 36 32 35 41 45 47 61 78 82 79 66 39 39 41 43 47 51 52 56 62 64
9 12 11 18 42 58 55 67 56 20 22 30 44 70 93 94 89 82 90 91 84 83 82 82 76 81 70 34 36 36 47 55 57 52 85 86 89 86 85 69 43 47 55 64 72 70 68 70 67
9 12 8 15 27 42 55 54 40 22 33 38 51 72 94 96 97 89 94 79 84 81 79 80 76 71 71 57 37 55 75 85 89 80 90 89 82 78 80 75 76 78 74 80 76 72 72 72 74
10 9 8 13 28 29 26 28 33 32 40 37 45 81 88 84 81 84 72 71 69 73 78 75 71 67 67 64 72 74 83 78 84 79 80 76 79 80 73 76 78 74 74 76 76 73 72 71 68
9 8 9 10 11 18 22 29 31 30 23 40 59 84 76 61 61 66 70 51 59 62 69 77 63 74 63 75 69 80 82 81 84 74 67 74 82 74 74 72 78 76 75 74 72 72 70 58 54
9 9 10 12 14 16 22 33 31 25 24 54 66 70 63 56 50 47 37 46 51 56 63 65 56 58 80 83 81 77 80 77 77 86 86 84 76 72 93 88 81 78 73 74 65 60 52 50 51
11 11 11 13 15 21 21 26 22 27 29 42 50 49 49 44 40 34 39 47 50 58 66 72 77 89 85 83 74 75 76 74 60 70 64 68 74 81 85 83 81 77 70 57 53 50 49 48 44
10 11 18 15 13 14 25 36 21 25 29 39 44 44 42 38 33 34 43 48 50 64 74 84 87 89 86 87 78 75 67 50 49 54 58 66 75 91 78 77 76 61 55 54 52 52 43 32 36
12 17 20 19 11 14 22 27 18 20 24 28 30 31 33 30 28 34 41 48 54 64 78 89 93 86 76 75 73 71 64 51 45 46 68 72 75 72 67 61 57 56 58 58 53 41 30 36 44
22 16 15 16 12 11 20 18 13 18 23 25 25 24 22 23 24 31 35 44 53 70 77 80 93 77 69 64 68 75 71 66 64 61 72 69 66 60 58 59 59 58 56 52 43 48 60 61 60
14 14 14 9 9 10 10 12 11 15 19 24 24 24 23 23 25 32 38 38 47 69 73 82 95 95 75 68 76 72 64 58 71 72 70 63 61 60 59 62 60 60 58 54 53 59 63 64 62
12 18 16 8 8 9 10 10 13 13 16 22 25 27 29 28 28 44 47 48 55 67 89 89 90 93 84 88 81 59 72 75 69 66 63 81 74 69 59 62 64 60 51 42 57 58 62 65 64
12 27 25 22 11 7 10 10 14 14 15 17 22 26 28 30 37 49 54 57 52 75 92 86 96 92 89 90 88 76 67 70 75 76 76 81 70 67 65 63 61 56 55 65 66 66 66 68 65
22 24 19 19 18 17 23 26 16 16 16 17 18 20 25 29 41 48 57 65 68 84 91 89 92 85 93 88 75 71 70 68 68 67 69 75 72 69 68 63 59 63 68 66 67 68 63 64 73
28 24 24 14 14 30 29 35 33 19 21 19 22 23 24 27 36 44 56 62 78 82 86 90 86 83 79 60 65 63 61 61 62 64 68 73 69 65 59 58 60 65 72 73 69 70 73 72 74
23 24 19 16 20 40 38 42 32 28 32 33 23 26 29 32 36 45 55 71 73 86 84 80 74 74 70 65 62 64 65 65 67 67 69 64 56 52 50 54 60 65 68 56 62 59 60 60 62
16 18 36 82 80 40 13 18 16 32 23 21 23 28 32 36 43 49 59 71 75 73 73 72 68 63 66 67 70 72 73 70 66 61 62 62 54 53 54 58 59 50 52 58 58 58 60 63 66
29 19 58 60 78 37 20 22 20 19 18 19 24 27 36 45 49 50 57 57 63 69 70 66 61 62 68 71 74 72 73 68 54 63 63 58 56 57 56 54 52 51 54 55 58 62 66 64 74
27 22 21 25 48 56 21 12 22 19 21 22 27 32 42 46 47 46 51 53 59 67 69 64 60 62 68 72 71 70 61 60 61 55 58 53 56 54 52 47 47 49 57 66 71 71 74 81 86
18 15 28 24 38 38 18 15 33 24 22 23 29 35 41 44 45 43 43 45 52 60 66 65 62 64 70 70 70 67 62 63 60 60 64 57 57 58 53 53 54 60 68 71 72 75 79 78 84
24 25 18 16 28 46 49 23 14 16 18 22 26 33 40 42 43 42 40 44 50 55 62 67 65 64 69 69 70 62 65 61 60 62 54 58 57 57 58 56 58 70 72 75 76 83 79 81 89
17 21 20 56 36 37 52 35 13 15 16 18 21 28 35 39 40 40 40 45 50 54 62 70 69 66 68 70 65 63 58 61 58 54 56 55 58 61 58 58 67 73 79 76 68 74 82 74 74

GFSSGP_850_rhum_045.txt.gz
RH
7 11 17 22 23 27 28 24 50 63 53 45 58 74 83 80 82 91 97 88 83 59 50 50 58 78 84 66 59 66 72 63 39 22 19 11 14 12 14 16 20 22 21 20 18 17 17 18 25
6 18 25 20 19 27 26 33 63 53 46 40 46 66 74 86 92 96 95 97 86 64 56 63 66 76 66 63 71 75 66 44 26 21 13 14 14 16 19 23 22 20 19 18 20 23 22 20 35
6 16 15 17 19 21 24 45 54 45 42 40 47 53 70 84 89 93 94 94 75 61 61 66 67 67 68 72 79 70 45 28 25 16 14 15 17 21 24 20 19 18 19 23 25 27 31 32 30
12 13 12 16 21 17 19 40 41 41 37 38 48 65 66 67 80 80 98 100 86 68 65 68 69 72 76 82 72 49 29 28 20 14 18 18 22 25 20 19 19 21 24 28 30 32 35 35 34
19 17 14 16 16 14 31 28 37 56 48 45 40 60 61 93 83 82 91 99 91 86 77 81 80 83 82 72 52 32 26 24 15 19 20 23 26 21 21 21 22 26 30 31 32 34 36 36 37
21 12 18 19 15 24 50 58 60 59 54 40 45 54 64 75 83 86 84 98 100 99 94 87 80 72 77 57 37 29 26 18 19 22 26 28 23 23 23 24 27 31 33 33 34 35 37 41 45
16 19 20 16 14 38 58 57 78 72 58 42 46 71 66 69 74 81 74 96 97 98 97 85 71 68 68 44 34 28 24 20 24 29 28 26 24 24 25 29 32 34 35 37 39 40 44 56 57
13 16 16 14 14 66 62 76 54 66 56 34 39 72 74 85 67 86 78 71 97 94 77 66 80 78 56 40 30 26 21 30 34 29 31 28 27 28 33 30 34 37 39 42 45 48 56 61 63
13 17 17 15 49 57 61 61 57 42 64 53 47 49 64 80 70 82 81 78 81 80 62 86 86 54 40 29 29 25 34 40 35 36 52 52 59 62 52 39 36 39 44 54 68 68 66 64 64
13 20 17 16 50 56 55 46 60 60 56 63 69 64 63 84 70 86 86 84 80 82 86 82 54 46 34 28 28 37 45 41 48 76 80 66 74 71 66 70 63 66 72 76 74 75 73 72 68
11 15 13 18 33 36 49 46 38 45 39 48 58 62 61 85 72 82 77 70 68 79 79 77 77 59 31 28 38 50 49 55 67 86 86 81 78 70 78 76 77 77 78 78 76 73 73 72 71
13 11 11 24 29 39 48 41 39 33 35 41 64 72 73 80 78 92 80 69 81 89 83 85 79 71 51 30 53 66 75 71 76 56 84 88 80 77 86 85 86 77 76 76 73 73 70 71 59
12 11 10 20 29 32 40 47 42 34 33 39 43 53 78 68 74 80 80 82 84 91 83 78 74 64 63 72 77 84 77 73 74 70 72 77 65 86 86 77 78 76 75 74 70 72 64 51 46
12 10 11 13 20 24 39 53 31 29 36 37 38 51 66 67 70 74 79 75 70 71 71 77 69 64 74 78 79 80 80 72 76 70 70 70 79 74 72 74 78 74 75 73 66 54 49 45 34
14 13 13 15 21 29 35 52 50 32 39 63 68 64 64 62 63 54 67 63 64 64 61 53 69 67 82 74 73 76 76 65 56 66 75 75 78 73 75 81 85 82 76 62 50 48 43 29 21
21 13 20 17 22 30 26 43 36 43 60 67 66 60 57 55 52 57 56 56 56 59 53 44 68 73 82 76 69 70 70 62 61 57 56 56 69 70 78 85 84 69 54 48 48 45 33 24 29
20 20 21 22 16 33 33 35 29 35 47 49 48 48 41 35 38 46 47 49 52 52 50 64 59 62 72 73 71 72 65 58 49 51 54 59 63 61 64 66 57 52 52 53 50 35 22 34 44
24 22 19 23 19 26 27 27 26 30 40 45 44 43 38 34 36 40 44 49 52 63 59 57 75 83 85 74 72 72 70 65 59 59 62 62 61 51 52 51 54 55 57 56 46 37 48 52 52
19 21 21 18 16 21 26 26 27 22 30 34 36 37 34 30 35 38 45 52 62 68 66 70 69 80 77 68 63 65 75 74 70 68 68 65 49 52 56 57 59 60 60 55 39 47 52 48 59
22 23 23 20 12 11 15 18 20 22 29 29 28 26 28 26 33 35 43 53 60 64 69 74 76 66 60 63 70 77 72 65 70 73 68 51 48 58 61 60 62 62 58 46 39 44 43 52 65
30 33 26 30 28 18 13 17 17 18 20 27 26 24 23 25 31 34 36 45 63 70 76 62 71 76 75 81 87 72 74 75 70 61 49 48 57 64 61 61 62 60 52 49 52 52 52 66 64
34 23 27 26 33 35 24 37 24 20 20 25 30 27 27 28 30 36 42 50 59 77 82 78 82 86 78 84 86 75 67 50 44 51 60 60 72 71 67 61 56 55 60 65 64 64 67 64 72
27 25 27 30 30 33 32 44 34 25 23 22 24 30 30 31 35 43 49 53 61 73 86 90 84 89 89 90 86 67 55 59 61 64 66 74 73 71 61 57 60 62 65 66 69 72 43 45 52
23 25 29 48 47 48 33 36 45 28 26 29 20 22 30 36 42 47 52 60 63 67 76 80 81 79 84 88 72 68 64 68 66 70 73 75 69 68 65 60 60 61 64 65 60 20 29 50 56
29 32 57 69 81 70 34 37 42 30 23 31 26 24 31 36 44 49 57 63 68 73 75 75 83 86 85 65 67 63 67 67 68 69 71 64 60 55 54 54 54 55 54 27 19 29 43 51 62
34 36 59 70 84 70 31 40 34 28 24 22 24 26 28 34 45 51 56 67 70 69 76 67 83 78 77 64 65 67 71 71 67 66 64 64 65 58 68 55 50 35 26 26 31 41 58 70 80
41 48 35 58 67 77 42 22 28 28 26 32 32 33 38 43 49 58 61 66 67 70 65 70 77 70 66 67 67 72 75 75 72 60 61 65 66 68 64 44 35 31 33 45 50 61 72 79 86
32 26 38 48 40 41 36 30 46 36 32 37 39 43 45 47 50 51 60 65 68 67 73 69 64 63 65 68 70 73 74 73 62 62 57 68 55 57 55 45 35 38 53 53 64 72 73 68 69
29 31 27 31 53 59 70 42 19 29 30 37 41 42 44 46 48 48 54 57 62 66 68 69 65 62 63 67 73 72 72 64 62 60 63 66 68 56 49 43 41 49 66 64 66 62 55 68 76
21 28 41 65 39 53 72 50 18 23 28 25 32 38 41 43 45 47 46 49 51 52 55 60 65 65 66 70 72 71 68 63 64 64 68 74 65 55 52 51 51 55 71 73 70 56 59 79 81

GFSSGP_850_rhum_048.txt.gz
RH
11 12 20 23 25 31 31 28 51 55 53 67 67 69 89 88 83 83 98 90 64 60 80 81 78 75 79 67 55 67 68 48 22 17 10 11 12 16 20 22 21 17 17 17 18 25 47 45 49
11 12 26 24 22 25 24 26 47 54 52 60 65 74 82 88 91 99 97 91 54 55 83 89 90 85 80 57 68 74 60 28 19 12 13 13 17 21 22 20 17 18 22 24 27 28 42 39 51
13 11 19 24 24 20 22 42 57 50 43 44 54 67 77 90 97 97 90 84 55 88 97 99 86 83 62 69 78 68 35 23 15 12 14 17 21 20 20 18 19 23 26 30 32 33 32 32 45
16 16 15 17 21 17 16 19 46 47 43 43 57 70 69 82 88 86 96 88 62 88 88 88 80 64 69 80 75 44 26 19 12 15 18 22 19 19 19 20 24 27 28 31 34 33 33 33 33
20 19 19 17 15 28 66 68 54 68 51 47 47 66 78 100 94 95 100 94 82 91 87 83 70 73 83 79 52 32 24 14 16 18 23 22 19 20 21 24 28 29 31 32 33 34 38 41 39
21 17 20 20 15 40 62 70 67 75 66 49 53 62 87 100 100 100 100 100 99 100 98 83 84 89 80 55 37 28 20 16 20 24 25 20 20 22 24 27 29 31 32 34 34 37 42 47 46
23 22 22 18 17 18 65 66 74 79 77 57 58 79 98 100 100 100 99 97 78 96 97 100 100 85 56 42 31 24 18 22 25 26 22 21 22 23 26 29 31 33 34 36 38 40 47 52 53
17 18 17 16 16 40 65 56 54 46 59 48 54 79 98 99 100 99 100 90 100 100 89 78 66 56 54 39 29 22 24 29 28 26 23 23 23 25 27 30 33 36 40 44 48 51 57 60 63
16 20 23 18 33 47 61 66 68 54 38 61 59 68 88 100 89 99 99 97 93 92 80 73 70 66 56 33 28 25 33 30 28 27 25 25 25 31 31 33 39 46 48 60 60 63 63 67 67
15 21 18 14 36 52 59 57 58 54 56 67 96 93 95 90 83 89 96 98 97 86 67 65 74 74 41 31 26 30 34 31 34 37 32 36 51 52 71 70 74 71 72 67 66 67 70 70 69
14 17 14 14 25 40 51 43 44 48 58 60 99 100 99 95 85 77 75 62 66 70 76 87 66 62 40 31 32 42 44 61 51 62 66 59 70 72 81 79 74 71 71 71 73 71 70 71 71
12 12 12 12 36 45 49 39 41 38 37 66 69 71 79 92 84 68 58 56 64 79 86 69 73 50 38 32 38 40 46 70 64 74 80 75 86 86 88 83 78 74 71 73 77 75 72 70 50
16 15 12 18 39 39 39 39 42 45 47 64 52 66 70 86 85 66 61 47 67 71 76 76 65 38 35 37 52 61 70 53 51 82 82 87 83 81 83 79 78 78 77 78 75 72 60 47 40
20 19 16 34 39 34 36 36 35 46 58 63 52 67 65 86 82 79 72 57 74 77 82 90 72 54 35 58 68 72 65 57 59 61 80 86 79 83 80 80 81 81 79 77 74 54 47 38 21
21 14 15 31 36 43 32 41 41 44 50 64 68 57 71 87 87 77 62 68 77 79 83 79 64 61 66 73 78 77 67 78 84 78 69 73 79 83 80 80 83 82 81 74 52 48 40 22 19
26 16 21 19 30 35 30 36 35 36 41 42 46 57 71 77 74 76 76 78 84 85 79 74 67 60 70 74 75 79 82 83 78 76 82 80 71 65 74 87 89 79 68 50 51 48 30 27 33
29 21 24 21 23 31 26 30 32 33 45 68 62 66 70 76 78 81 82 73 74 63 65 72 67 62 79 84 85 84 83 78 78 75 65 60 61 66 79 86 71 51 47 53 53 43 28 31 33
30 21 19 22 21 32 31 30 30 51 67 68 63 65 64 66 67 69 71 71 65 59 43 28 49 65 84 86 81 78 78 73 64 55 57 64 66 67 65 55 48 46 53 57 54 37 31 37 32
25 21 23 22 18 33 35 28 28 55 58 59 60 51 52 59 55 61 63 61 62 60 49 30 38 62 72 79 72 70 69 69 62 65 66 70 67 56 46 45 47 54 60 59 48 40 42 30 27
25 27 31 22 22 23 30 28 27 44 52 52 49 49 43 55 59 61 59 59 58 55 56 51 47 50 58 65 61 68 69 72 77 76 75 72 63 49 44 49 56 59 59 52 47 47 39 34 36
30 31 30 30 27 19 19 19 23 24 35 45 45 43 39 41 52 56 56 54 56 59 58 62 65 63 66 75 75 72 76 78 73 72 76 68 56 52 53 58 61 58 54 51 48 44 48 58 59
36 28 29 26 32 31 23 26 30 24 28 36 37 38 38 34 44 48 52 52 54 57 63 68 74 75 76 76 74 75 76 62 63 66 64 52 52 58 67 65 62 58 54 50 48 53 63 68 48
36 30 29 27 34 38 35 37 32 25 27 38 35 32 32 32 37 44 50 50 53 57 65 72 83 86 83 81 83 86 77 67 58 50 55 60 64 73 69 66 61 58 57 57 60 64 65 48 20
30 26 45 51 50 50 38 39 36 32 24 23 31 33 33 32 35 41 44 50 60 65 66 67 84 86 88 91 83 80 66 55 56 62 66 72 80 74 70 70 67 58 60 62 62 51 23 12 17
28 40 58 62 74 60 39 43 39 30 25 26 29 30 28 31 36 44 46 54 57 63 66 72 77 78 83 91 84 67 60 59 65 65 68 75 77 75 74 69 60 58 58 57 41 20 12 17 35
36 38 59 48 79 60 44 46 36 31 25 23 21 22 28 33 37 40 47 52 51 56 72 81 77 75 72 78 81 68 70 68 70 67 73 79 77 79 65 78 86 63 54 37 18 13 16 38 65
33 42 37 64 67 83 51 27 30 31 29 33 32 30 32 31 39 47 49 52 56 65 72 79 83 78 76 82 75 70 70 71 70 70 77 76 74 77 82 80 64 67 47 19 14 16 35 60 69
32 29 45 56 48 48 39 35 48 36 33 37 42 38 43 44 46 48 52 58 62 64 66 76 75 72 72 86 68 69 70 74 72 72 73 71 76 75 71 87 72 58 27 16 18 41 64 61 46
34 32 31 40 55 55 66 42 28 38 37 43 44 35 45 53 53 54 57 61 66 70 72 66 67 74 78 82 70 71 75 78 73 67 65 70 75 78 78 77 60 44 32 25 32 57 73 55 56
42 44 42 64 37 57 73 46 26 34 35 38 36 38 40 40 45 45 47 54 62 64 66 68 69 65 66 69 70 73 75 73 70 73 82 79 74 84 70 66 54 54 31 41 54 72 76 72 66

GFSSGP_850_rhum_054.txt.gz
RH
14 12 19 22 25 31 30 28 24 42 65 77 68 79 83 94 82 81 98 97 72 89 96 86 72 70 62 58 49 51 47 24 12 10 9 14 18 19 16 20 30 44 48 47 45 44 49 52 50
15 15 25 21 25 27 24 21 36 50 65 61 69 76 85 96 94 98 100 89 72 91 96 88 77 74 65 57 53 55 36 14 9 10 15 20 17 16 17 24 38 45 45 45 44 41 42 46 53
14 14 21 26 26 23 20 17 60 60 65 64 68 78 91 97 97 96 97 86 85 91 98 89 83 77 64 56 62 48 19 11 11 15 20 18 17 19 23 32 40 40 40 42 46 47 49 51 54
17 16 16 23 21 17 16 40 74 60 58 56 63 78 92 100 98 95 95 91 84 89 98 93 87 78 61 61 59 27 15 12 14 21 20 18 21 25 30 34 36 35 34 35 38 41 43 44 44
19 18 27 19 16 15 63 71 70 66 64 67 66 84 95 99 96 100 100 100 99 100 100 100 91 74 67 69 42 19 12 13 21 22 20 20 25 29 32 34 34 35 35 41 44 44 46 47 49
23 19 26 25 19 16 66 66 69 67 67 70 70 82 98 100 92 99 99 97 99 98 99 99 99 96 83 52 25 16 13 17 24 21 21 25 28 31 32 33 32 33 38 42 47 51 52 55 56
24 29 25 20 19 16 42 64 69 70 65 57 61 88 98 97 100 100 100 100 98 100 94 96 99 99 73 30 22 16 18 24 22 22 23 28 31 33 32 32 33 34 35 40 49 53 56 59 62
19 25 20 19 18 17 60 63 62 61 61 61 70 96 98 100 90 99 100 99 84 82 86 99 91 74 57 28 19 23 29 25 22 23 26 32 36 36 35 35 36 35 38 45 52 55 59 64 65
18 28 28 20 18 22 66 58 61 59 70 86 85 81 86 100 90 98 100 84 78 73 73 74 79 67 60 41 29 26 25 26 25 27 32 36 38 39 39 37 37 40 47 50 54 59 64 65 65
22 30 24 18 16 28 56 58 53 60 92 99 99 95 92 100 97 96 94 89 88 78 90 91 78 63 56 49 29 23 29 28 27 30 35 37 38 40 38 35 38 43 51 57 62 66 66 66 64
20 23 18 15 13 28 59 63 52 63 77 90 98 99 100 97 92 98 100 99 100 99 94 76 66 57 51 35 26 23 35 30 33 38 41 36 40 39 44 47 55 58 61 65 70 70 70 71 59
18 16 14 13 16 51 64 46 53 53 52 64 98 98 98 93 98 97 98 81 84 81 79 71 60 56 39 26 25 34 36 32 37 49 66 65 64 69 69 69 66 69 69 71 71 74 74 68 44
16 18 21 24 31 42 42 48 50 96 81 87 100 99 78 94 99 100 92 84 87 73 63 66 48 35 29 28 28 36 39 51 68 83 80 79 73 73 74 75 74 73 75 76 78 78 69 48 34
21 25 40 45 44 42 45 50 47 96 100 100 97 76 69 66 81 100 99 92 80 74 65 63 45 42 40 39 39 44 41 72 76 82 81 79 76 76 80 80 76 78 79 79 80 73 52 41 26
23 20 37 42 45 44 38 52 53 87 99 98 62 76 74 77 77 71 62 64 58 61 62 53 50 63 48 41 45 49 62 74 84 85 90 84 79 79 82 81 81 80 81 83 78 57 45 38 23
27 19 37 35 40 44 32 38 69 100 99 99 85 76 75 62 63 65 66 67 66 61 70 76 60 63 46 42 50 53 69 78 73 77 82 82 78 77 83 87 86 84 85 82 66 48 46 33 21
32 26 25 34 38 40 36 31 65 100 97 99 100 71 65 72 63 66 62 58 63 69 72 58 62 56 43 43 55 55 58 72 82 83 80 81 80 86 89 90 88 89 89 72 51 50 43 28 21
38 37 32 26 31 36 44 44 62 89 84 91 94 82 64 68 60 65 66 63 53 62 71 67 67 62 47 42 62 74 89 88 88 88 88 87 87 83 76 87 93 94 74 51 53 49 39 33 37
35 34 32 25 20 29 39 40 61 70 75 74 83 87 86 67 54 67 66 65 60 66 71 69 79 73 57 43 72 86 86 88 90 82 94 86 76 68 75 89 96 76 52 54 54 50 45 49 52
32 32 33 27 27 28 32 35 36 62 64 65 71 80 77 72 71 66 66 67 58 58 62 74 80 80 64 54 61 77 77 82 86 94 91 74 65 72 83 83 68 53 56 59 57 54 56 60 61
30 31 33 32 30 24 28 28 34 46 66 71 74 64 69 64 63 68 66 58 57 57 56 60 69 65 66 66 63 74 83 84 83 93 81 69 73 77 75 65 58 59 63 61 61 60 59 60 60
32 30 33 36 35 36 27 32 28 38 65 69 67 70 65 61 58 60 64 66 56 56 61 67 71 70 66 69 62 62 73 72 73 82 80 76 82 79 71 64 62 65 65 63 66 66 66 63 56
33 33 34 35 38 40 37 42 35 31 44 62 67 63 60 55 55 59 60 52 56 61 59 63 70 70 67 69 67 67 69 76 90 88 80 85 84 77 71 67 67 68 66 67 70 67 61 50 32
31 37 42 49 49 51 39 41 42 36 33 44 50 60 58 56 58 61 61 64 64 65 65 64 63 62 61 60 56 66 76 86 98 91 84 84 80 77 73 72 71 69 68 70 79 78 63 71 65
34 42 54 62 67 56 43 47 43 31 28 28 36 46 51 52 53 54 54 59 62 56 59 60 63 64 63 64 61 73 73 98 100 90 84 74 78 75 70 71 74 69 71 76 87 78 82 61 34
37 40 60 45 65 49 46 49 37 30 33 30 29 24 34 48 50 49 47 49 51 49 51 55 54 59 62 68 74 83 84 100 96 92 81 77 68 62 73 77 75 74 82 91 91 78 57 28 17
42 45 40 64 71 81 53 41 27 33 32 37 34 34 31 34 44 46 46 44 44 45 44 45 49 53 58 64 80 89 97 99 93 80 71 61 64 72 80 81 80 90 93 94 92 47 25 23 29
32 39 46 58 51 55 46 40 40 31 35 36 41 36 39 40 40 41 42 43 43 43 45 49 51 52 55 63 80 78 91 93 88 71 64 67 73 78 85 84 89 91 98 81 88 50 26 27 42
44 42 45 46 57 55 64 48 34 27 34 33 35 34 33 33 37 35 34 34 38 41 45 49 58 57 60 71 82 81 77 83 88 84 79 79 83 87 91 92 97 97 93 97 72 32 34 46 56
36 42 46 66 47 64 75 56 28 27 29 33 30 30 32 35 31 31 34 38 39 38 41 43 49 58 62 69 74 73 79 82 84 85 88 89 91 95 94 95 98 94 83 92 57 57 43 57 75

GFSSGP_850_rhum_057.txt.gz
RH
14 11 18 21 18 21 19 18 20 21 32 77 82 68 62 91 78 68 94 98 97 92 98 78 59 57 53 50 49 50 41 21 13 9 8 11 18 21 20 20 30 40 43 50 53 55 46 43 44
14 16 25 21 17 18 13 18 20 39 53 59 71 74 67 69 96 97 97 97 91 96 98 88 66 59 56 54 53 45 23 12 8 8 13 19 21 20 23 32 38 41 40 39 39 38 42 46 46
14 17 23 20 20 15 15 14 31 57 72 66 76 86 86 91 97 90 85 94 98 99 97 90 81 65 62 60 53 35 15 9 9 13 19 19 19 24 35 39 41 39 36 34 34 37 42 47 47
16 16 16 18 19 15 14 15 65 58 59 60 72 78 96 98 94 84 86 92 98 100 96 89 88 67 62 61 47 21 10 9 12 21 18 18 24 30 39 41 36 35 33 32 35 40 42 46 47
18 18 20 18 15 13 18 58 67 58 60 63 70 82 85 88 95 92 99 100 98 99 96 92 89 72 71 59 35 14 11 12 19 20 18 24 30 33 35 34 35 35 37 39 41 44 47 49 52
23 20 21 19 18 14 38 66 64 61 64 70 71 80 96 99 91 99 96 92 95 98 99 100 99 98 96 41 19 12 12 17 24 18 23 28 35 35 35 36 38 40 44 47 49 51 55 58 59
23 21 22 19 18 16 30 69 64 60 60 54 74 73 97 99 93 98 99 98 98 100 90 95 99 97 84 70 31 16 17 27 20 22 25 35 37 37 37 38 39 41 46 50 55 57 61 62 61
20 19 20 18 18 17 46 66 60 66 59 62 72 72 90 99 100 99 100 93 95 99 87 74 75 75 70 80 50 25 27 25 23 25 30 34 35 37 38 38 40 44 49 58 60 64 63 62 58
18 21 22 20 18 18 58 58 66 63 76 83 88 88 90 100 100 98 99 90 86 99 100 89 86 81 72 49 42 43 36 26 26 28 36 35 36 36 39 38 43 49 56 60 64 63 63 67 62
19 23 20 16 15 18 55 55 54 60 84 90 98 97 99 99 98 96 95 89 80 93 93 83 73 72 62 52 62 61 42 26 24 33 37 38 37 38 37 40 44 50 60 65 65 66 69 70 56
21 20 17 15 14 19 39 59 51 56 66 79 92 99 99 99 100 97 92 97 82 84 86 77 80 65 60 60 60 46 33 28 30 33 38 40 39 41 40 43 52 61 64 62 66 71 73 70 48
20 17 17 14 14 31 39 54 55 60 59 56 80 98 100 100 98 92 92 94 94 100 95 67 62 54 50 40 31 31 33 27 28 33 36 38 39 42 45 57 66 66 66 70 74 75 74 66 40
17 16 21 21 28 39 47 50 52 80 72 74 94 99 100 99 99 96 97 99 100 84 72 68 67 58 46 35 26 28 34 28 32 36 41 43 50 60 68 71 69 70 73 76 76 78 74 51 36
21 22 33 46 48 48 46 55 55 90 99 100 99 100 100 100 99 94 87 90 91 81 80 67 58 50 32 27 25 28 35 33 39 48 65 72 73 75 77 78 75 76 77 78 79 78 67 42 34
25 26 31 43 45 44 43 44 42 87 100 99 100 100 93 98 99 92 80 85 74 66 62 57 52 32 27 27 31 43 38 40 59 74 80 83 81 81 79 80 82 81 80 80 82 78 50 42 29
25 20 27 33 40 44 38 39 62 95 94 91 100 99 98 81 83 91 93 84 72 62 65 54 45 48 52 35 32 41 41 62 75 83 86 77 76 81 76 85 86 84 82 83 79 58 48 39 24
31 25 25 30 38 39 34 32 59 98 95 84 92 86 95 99 91 77 62 67 55 60 58 59 54 55 60 43 38 51 49 60 83 88 77 74 74 74 78 84 86 87 85 85 73 51 48 38 26
34 34 30 25 26 37 39 36 64 96 97 84 77 81 79 94 78 72 67 65 62 58 61 76 72 61 57 44 42 54 58 76 83 76 79 79 81 79 88 89 88 88 89 88 55 51 48 39 40
32 33 30 25 22 36 37 34 44 89 90 82 79 80 73 54 73 68 68 63 63 62 66 73 62 63 63 47 43 53 61 57 66 80 74 77 86 91 86 84 85 90 92 66 54 53 51 50 54
32 32 30 27 26 28 29 26 30 74 81 74 71 69 63 63 59 66 64 67 66 53 54 65 66 66 70 57 40 42 50 65 78 85 84 77 92 88 80 81 86 94 81 55 58 57 56 59 60
31 32 34 32 30 25 24 23 32 51 65 71 69 68 67 61 62 66 66 64 67 59 51 54 61 65 79 74 52 40 60 78 88 90 82 86 89 78 79 83 90 81 58 59 60 62 62 64 61
33 30 33 34 34 32 27 33 28 30 54 60 61 67 69 73 51 58 61 60 60 54 55 55 60 69 74 80 69 53 55 64 69 66 70 86 82 76 77 87 78 62 60 64 62 64 65 64 56
32 33 34 35 37 37 36 34 27 30 30 44 55 62 67 61 50 45 52 54 56 59 58 58 60 67 73 76 80 69 68 74 69 73 88 93 83 78 83 81 70 63 63 66 65 67 66 68 71
34 38 39 42 42 44 36 34 30 26 26 27 33 50 67 51 46 45 49 53 52 54 53 55 59 60 66 72 74 76 75 74 74 79 98 97 87 86 87 80 72 66 67 68 67 74 82 81 77
33 36 44 52 53 45 43 42 31 27 26 26 26 34 52 54 49 43 46 50 54 53 55 53 54 56 62 70 74 73 70 76 88 98 99 94 92 91 87 78 72 69 70 69 73 87 95 86 73
37 36 50 44 48 40 42 43 24 29 27 33 33 31 32 44 45 44 37 39 44 50 52 54 50 52 59 63 70 70 66 74 78 98 100 100 92 90 81 78 74 72 73 72 79 94 96 69 43
41 40 38 58 69 63 43 33 22 26 27 32 37 30 29 30 46 46 49 46 45 47 44 43 50 52 56 59 65 63 69 76 77 90 99 98 89 82 81 78 78 75 75 76 83 96 76 73 51
35 36 45 49 54 54 40 37 27 24 28 32 30 36 30 32 33 38 45 50 50 47 48 49 52 55 58 62 65 64 76 83 89 99 99 99 90 87 82 80 80 78 81 96 99 84 64 83 38
42 41 44 40 46 45 48 34 32 24 27 33 34 33 32 26 29 33 36 39 44 48 49 49 51 56 61 59 65 70 74 86 99 100 99 100 93 86 87 90 88 90 99 98 92 82 81 51 48
36 39 41 53 48 58 57 42 28 29 27 30 31 28 30 29 28 29 32 35 36 38 38 39 46 53 61 64 69 70 84 93 87 79 75 91 96 91 93 93 93 94 96 91 96 89 67 54 52

GFSSGP_850_rhum_060.txt.gz
RH
16 12 16 20 13 11 12 10 10 11 23 35 47 30 34 44 47 52 90 99 98 98 100 75 67 80 79 77 76 74 58 53 40 22 11 8 12 16 19 30 40 53 54 52 48 37 34 36 39
14 14 24 15 12 12 10 9 10 16 28 52 58 53 48 43 74 86 92 88 92 98 99 99 64 67 73 71 60 53 51 31 17 9 9 13 18 19 25 37 42 47 47 42 37 37 38 41 40
14 14 17 13 12 12 11 10 12 28 44 52 53 64 55 49 74 88 96 88 97 97 99 86 65 56 53 52 54 48 27 14 9 10 14 18 19 22 33 39 39 41 38 37 40 43 43 40 39
20 14 14 12 12 11 9 8 21 26 41 49 52 50 75 68 56 92 96 87 89 97 96 86 66 59 59 61 52 28 14 9 9 14 18 18 20 32 36 38 36 36 38 41 43 43 41 42 41
17 12 10 12 12 8 8 15 28 31 40 44 50 54 70 96 63 77 90 97 99 100 99 88 74 72 70 54 29 15 10 12 16 18 16 19 31 34 38 36 35 36 39 41 41 44 47 49 48
14 13 12 12 10 8 9 26 39 41 47 51 49 53 80 96 95 99 99 98 88 80 95 99 97 89 93 73 53 47 26 22 21 18 21 28 37 36 35 34 36 39 42 44 48 52 55 56 53
15 14 13 12 10 12 15 41 41 43 45 44 50 44 89 98 100 100 100 100 100 98 98 99 98 98 99 83 76 65 61 32 23 22 33 31 34 34 35 38 43 45 48 52 56 58 59 58 51
14 12 14 11 11 16 20 39 50 49 41 56 59 49 71 100 100 99 100 100 100 100 100 100 91 84 77 74 66 60 58 28 23 36 35 34 35 37 39 41 46 51 53 56 58 63 65 59 44
16 13 13 13 13 16 27 31 58 56 49 61 70 64 79 96 99 100 98 100 99 83 85 97 84 72 68 88 75 64 45 26 34 37 37 38 40 42 52 56 49 51 56 59 64 66 68 61 41
14 14 12 10 10 12 14 30 40 47 48 54 86 97 94 99 98 96 96 98 100 99 85 79 78 86 87 82 71 59 48 38 36 35 40 51 44 72 56 48 52 58 62 65 67 70 70 61 47
14 13 12 12 13 13 13 25 29 35 31 41 60 100 100 100 100 95 96 100 99 100 100 100 95 95 89 76 64 53 37 41 40 37 38 38 65 44 46 51 60 63 66 69 71 72 71 62 39
16 13 14 14 15 16 17 24 33 36 44 58 70 99 99 100 100 100 96 99 99 99 100 97 91 79 72 53 55 52 52 41 42 42 35 39 56 52 68 78 64 67 71 72 72 73 73 59 37
17 14 16 18 26 24 33 30 35 44 62 75 92 98 99 99 100 99 99 98 99 99 100 99 84 61 55 62 80 72 46 40 66 42 40 40 40 41 47 59 68 72 72 74 76 76 72 51 37
17 17 18 28 28 33 32 35 39 51 73 85 98 99 99 99 99 100 100 99 100 100 84 75 86 85 86 88 90 68 80 80 38 38 38 38 40 45 58 69 72 71 74 75 77 77 72 45 39
20 20 17 27 29 31 34 33 31 49 76 90 94 97 98 99 94 85 99 100 92 88 86 88 87 88 88 87 74 73 41 38 65 42 37 45 58 69 73 76 74 76 77 77 78 78 70 44 40
18 18 17 25 28 35 33 26 29 54 62 68 89 86 90 98 87 77 89 85 77 75 82 86 84 88 85 86 72 78 55 39 54 51 63 74 78 75 79 78 83 79 80 80 80 75 58 49 46
16 18 16 27 28 28 30 24 34 58 56 48 62 68 77 85 81 77 85 82 74 73 75 80 76 75 90 59 43 41 42 45 79 93 94 79 79 76 75 77 79 86 83 81 80 74 52 54 52
16 20 17 17 23 28 25 21 27 54 52 47 47 54 68 69 74 80 80 81 70 75 81 77 80 88 64 60 42 38 52 64 89 85 92 82 83 70 72 76 84 89 84 83 84 66 50 56 61
20 20 18 17 18 26 23 21 17 40 58 48 44 46 54 61 67 78 80 80 75 70 78 84 86 89 95 90 58 73 75 81 77 89 81 78 69 71 75 86 90 88 83 84 84 57 52 68 54
24 19 18 20 20 23 19 18 16 25 46 46 44 48 46 52 61 72 83 81 82 72 76 81 88 92 78 79 70 66 57 78 86 88 69 72 78 74 77 97 90 86 84 86 78 55 68 70 58
25 23 22 21 21 20 20 17 19 28 41 51 56 50 42 43 50 63 76 83 84 79 80 81 85 90 89 92 84 80 81 87 72 80 61 74 72 76 88 91 89 88 87 86 63 58 60 73 74
26 19 21 22 21 23 20 24 18 18 28 36 40 48 46 42 45 51 66 74 80 81 82 82 84 90 95 88 88 86 70 68 77 81 64 72 75 86 92 83 87 89 89 82 58 59 70 68 68
22 23 24 23 23 27 24 23 17 20 19 23 31 37 43 45 42 46 54 64 72 77 84 87 85 88 95 96 91 90 73 67 78 96 77 77 81 90 90 88 90 92 86 66 59 62 63 65 72
23 27 28 28 28 33 24 23 18 15 15 16 17 27 33 41 47 45 45 58 64 74 80 66 69 84 88 76 72 80 97 91 96 73 76 83 90 94 87 84 90 89 71 63 61 64 65 67 81
26 26 35 42 39 34 28 28 19 16 17 18 19 21 24 34 42 49 48 50 59 68 80 73 67 79 81 78 69 73 82 82 70 70 74 82 90 93 88 86 88 84 72 66 65 66 68 74 84
27 25 31 38 36 30 30 26 17 18 18 22 26 28 29 28 40 43 49 51 56 66 77 60 51 65 81 72 62 73 68 62 64 62 74 84 89 100 99 96 92 85 77 69 69 70 75 88 91
31 32 25 37 51 44 25 20 16 16 17 22 21 24 27 28 34 41 42 49 57 65 74 67 61 73 85 79 89 77 61 62 59 59 68 96 100 99 100 100 96 89 78 84 76 73 92 95 83
29 24 34 33 42 39 27 25 18 17 20 16 16 18 22 32 35 38 42 45 54 60 71 84 79 80 88 97 92 78 71 63 70 74 92 94 99 100 98 97 95 86 82 86 78 83 98 87 94
32 32 31 28 31 37 36 25 16 16 17 22 22 22 24 29 36 40 43 46 53 62 72 82 79 81 86 92 98 75 79 78 88 91 91 96 97 100 100 90 90 90 92 92 86 99 96 99 99
23 26 28 34 34 37 40 30 14 16 19 19 20 23 28 34 37 40 44 49 56 63 70 76 79 82 84 94 98 78 83 87 90 91 92 88 99 99 100 99 96 99 93 94 98 99 100 96 86

GFSSGP_850_rhum_066.txt.gz
RH
16 18 18 20 15 13 13 10 6 7 8 36 25 37 43 20 25 37 46 37 44 71 96 84 91 94 81 72 65 66 67 62 61 49 27 8 10 20 73 67 56 60 55 44 33 31 31 30 29
22 32 20 14 16 17 12 8 10 8 12 26 23 23 22 20 53 54 48 35 49 44 93 84 88 92 89 78 70 70 69 66 55 37 12 9 15 30 75 60 52 51 45 33 35 35 33 32 31
17 20 14 14 16 15 11 9 8 8 9 15 16 26 21 42 69 83 89 66 82 81 91 82 86 93 92 82 77 76 72 65 48 19 9 15 22 39 74 64 48 43 34 36 36 36 34 34 31
22 15 12 12 11 8 8 9 6 8 18 41 38 31 48 98 87 88 87 88 85 95 91 84 85 96 97 87 85 80 74 58 28 11 17 22 31 50 68 61 42 34 36 39 38 39 36 32 26
18 12 12 12 9 7 8 6 11 33 44 57 52 40 86 77 88 82 83 81 87 96 93 96 98 98 100 92 88 86 68 39 14 16 29 33 44 58 69 58 37 38 39 41 43 40 34 26 21
14 11 14 12 9 10 8 9 16 37 32 54 71 66 74 64 96 92 87 95 80 75 93 88 88 89 99 100 99 82 41 20 19 29 65 55 48 55 64 48 39 40 41 46 44 36 30 24 20
13 12 12 10 10 9 16 17 18 22 22 47 38 64 91 100 89 82 94 97 100 90 74 70 53 77 96 97 96 81 34 20 26 34 48 49 41 45 45 40 39 40 47 50 49 38 29 24 21
11 10 11 10 10 14 20 16 21 18 17 20 37 51 84 61 92 92 91 90 98 99 89 68 52 64 79 89 81 68 52 30 32 44 52 52 42 40 40 41 41 46 52 57 56 47 31 25 23
10 12 12 11 13 21 23 20 19 25 20 40 79 94 94 86 96 97 95 96 92 95 83 70 79 68 68 74 85 69 55 56 51 60 57 47 42 43 43 43 46 52 58 59 61 58 37 30 26
9 12 11 10 8 9 10 12 12 25 44 53 32 71 98 99 100 96 98 99 100 100 96 80 75 77 88 95 82 83 73 54 59 55 52 44 39 38 46 49 51 55 60 62 65 57 46 45 40
10 11 9 8 9 10 10 10 14 14 52 52 51 68 99 100 100 99 99 98 98 98 100 99 95 88 100 96 90 79 52 75 63 55 46 40 37 41 52 53 56 58 63 64 67 62 58 49 41
11 9 8 8 9 10 11 11 12 26 41 34 49 98 95 96 98 100 99 99 99 100 100 100 99 100 97 94 86 66 69 79 60 53 43 45 34 47 54 52 58 61 63 67 66 68 69 48 35
10 10 9 9 9 9 12 15 14 49 59 72 91 98 94 95 98 99 100 100 100 100 99 99 100 99 94 87 88 69 83 68 56 45 50 36 42 56 51 55 58 63 67 68 75 72 71 54 36
10 11 11 10 10 10 13 16 34 57 65 78 83 93 95 99 100 100 100 100 99 99 100 99 96 98 97 94 93 78 87 56 56 53 59 41 53 60 65 80 71 73 75 75 76 72 71 53 41
12 13 11 10 11 12 12 17 44 48 67 73 80 82 84 89 97 98 95 99 98 100 99 100 100 99 97 88 80 67 69 52 56 84 60 56 69 78 82 82 80 79 75 77 73 70 66 59 48
14 14 16 11 12 14 14 24 44 38 51 56 61 68 73 78 85 92 99 95 100 100 97 94 95 78 69 68 68 63 53 65 81 72 52 45 71 81 86 81 84 79 79 76 74 72 73 58 48
15 17 14 13 14 15 20 37 56 35 48 57 47 54 54 64 80 78 93 96 97 91 89 74 73 70 66 79 65 82 67 74 67 59 45 44 64 76 76 87 86 83 80 77 77 76 68 59 51
19 17 16 13 17 16 15 54 59 44 48 51 38 48 50 58 77 67 90 88 88 67 56 60 68 81 87 72 83 76 74 54 47 56 68 69 56 55 70 92 87 80 81 82 79 76 73 62 56
16 16 17 16 15 17 16 18 38 46 35 35 33 42 49 44 55 68 78 65 67 80 70 72 74 75 76 65 75 75 74 62 63 62 74 81 78 70 75 68 82 80 85 86 81 79 75 71 60
18 18 16 14 15 15 14 16 27 30 21 21 28 33 39 42 50 56 58 62 67 75 76 77 76 74 75 76 71 69 72 67 66 70 71 83 85 78 86 88 99 87 82 87 82 80 79 79 66
18 16 20 24 17 15 17 17 17 15 19 19 24 26 38 39 43 53 61 60 64 69 72 71 71 71 73 76 67 66 62 62 66 68 72 81 84 73 98 86 98 90 82 86 84 80 77 79 72
21 14 18 17 19 22 21 34 26 19 16 21 21 25 28 35 38 47 56 62 61 64 68 70 68 67 73 71 70 68 61 57 61 64 69 71 80 79 85 92 93 98 88 88 87 85 82 80 75
20 19 21 18 19 21 23 35 24 19 17 16 21 26 30 32 37 44 49 58 60 62 63 67 66 64 66 68 66 64 59 58 55 60 65 73 88 84 91 98 97 99 95 94 93 94 90 85 76
15 18 20 21 22 34 22 28 29 22 23 14 20 26 31 32 32 38 47 52 61 63 64 63 65 64 64 67 68 66 68 62 57 59 65 72 79 78 76 99 84 70 71 92 99 98 96 85 86
17 22 36 43 43 42 22 25 24 27 20 16 12 24 29 28 28 31 39 50 56 61 64 66 64 65 63 64 70 68 74 76 64 63 65 70 72 57 49 66 80 82 82 98 100 99 90 100 99
22 22 38 58 83 62 43 28 17 16 13 12 13 13 18 24 26 27 29 42 50 55 60 66 70 67 66 64 70 76 75 79 84 69 70 69 71 56 60 70 84 89 82 95 100 98 98 98 100
23 30 21 58 59 71 52 25 14 12 11 11 13 15 16 17 22 28 29 29 42 48 55 61 69 71 69 66 67 71 50 80 74 85 85 72 69 78 78 86 92 90 100 100 100 99 100 98 98
18 19 31 34 74 45 22 20 21 17 14 13 12 14 16 20 21 20 28 31 32 41 48 55 59 68 71 69 71 72 80 84 88 91 91 77 74 98 100 100 100 100 100 99 99 100 99 95 100
20 27 31 24 27 46 52 35 32 21 14 14 15 14 16 18 24 26 27 29 34 35 43 50 58 61 66 68 71 74 84 90 79 73 69 85 100 100 100 100 100 100 99 100 100 99 97 98 99
16 22 28 40 39 40 52 36 27 24 13 14 14 15 15 17 20 28 31 31 34 38 40 52 60 66 68 68 71 76 81 75 71 94 96 100 100 100 98 97 99 99 100 99 95 94 100 100 97

GFSSGP_850_rhum_069.txt.gz
RH
14 17 21 24 32 28 28 20 15 12 18 27 29 27 30 30 40 68 69 66 73 60 54 69 96 77 57 53 56 58 52 56 56 40 14 9 13 39 36 49 55 53 35 27 27 26 26 42 64
16 26 32 29 28 34 26 16 13 14 30 32 23 23 24 72 72 73 90 60 47 44 46 36 55 96 64 59 62 63 57 60 50 23 10 18 40 38 45 54 52 37 28 29 28 27 27 43 66
15 25 30 25 31 32 24 15 12 32 41 43 42 40 81 98 84 95 79 82 76 46 44 50 49 65 77 64 62 65 61 61 41 12 14 62 70 44 52 50 40 28 30 28 26 26 27 49 61
18 21 20 21 23 18 17 11 30 30 30 42 36 61 77 68 60 96 77 98 85 83 80 67 85 97 84 71 72 71 65 56 24 10 19 64 72 49 49 42 29 31 30 27 25 23 26 52 57
27 25 26 24 20 14 11 10 21 34 38 61 32 65 66 62 55 49 62 69 76 75 85 78 90 99 98 91 80 73 68 44 12 16 32 68 71 46 40 31 32 34 33 28 25 21 22 48 52
30 18 26 24 18 12 15 17 24 32 33 50 42 65 80 61 41 44 65 65 63 74 67 67 73 94 84 90 91 75 62 26 12 23 40 68 62 41 32 32 34 38 36 28 25 22 20 35 51
21 25 26 20 15 12 21 16 27 29 38 52 54 66 79 50 41 53 63 78 70 69 67 77 78 62 65 86 100 94 65 37 25 31 50 70 61 43 33 35 39 44 43 35 26 22 20 23 45
18 19 19 15 14 18 21 16 20 20 54 63 56 79 85 76 66 50 86 100 95 97 96 90 79 83 83 83 80 95 85 60 68 69 57 61 64 46 38 39 44 50 51 46 30 26 22 23 37
16 19 21 18 15 18 21 20 20 23 33 45 58 70 72 77 98 100 98 100 99 98 98 95 82 75 72 78 84 84 76 45 55 73 67 63 61 46 42 42 49 54 56 55 44 28 25 27 36
17 21 17 12 12 12 15 20 17 29 42 52 96 97 100 99 98 99 100 99 100 98 93 95 84 75 78 89 87 84 68 65 64 64 56 64 48 43 41 47 53 56 61 61 51 38 38 35 34
15 16 12 11 8 10 12 11 35 37 65 99 61 99 94 92 99 100 100 100 100 98 98 97 83 95 83 79 76 82 71 68 68 64 59 49 43 41 43 48 53 59 62 62 59 51 42 31 33
17 13 12 9 8 10 11 16 84 78 86 77 71 91 93 96 90 98 100 100 100 99 100 99 98 98 87 86 83 77 85 63 76 61 44 41 38 40 44 45 55 58 63 64 63 66 60 39 34
16 14 10 10 9 10 9 43 60 73 35 34 75 91 86 84 88 99 100 100 100 100 100 100 100 100 98 93 88 62 56 75 66 50 42 39 38 39 36 47 54 59 64 68 65 71 69 50 35
14 15 14 12 11 10 12 38 36 63 39 35 69 90 86 87 94 98 100 100 99 100 100 99 100 98 95 91 66 52 64 71 58 49 48 47 42 34 38 44 53 60 64 70 68 72 71 60 38
18 22 18 16 13 13 12 30 54 51 46 57 79 85 91 91 86 86 98 100 100 100 100 100 90 93 85 84 63 64 82 73 59 56 67 56 44 35 38 43 52 62 67 75 73 69 70 65 50
24 23 26 18 15 13 17 35 52 53 66 81 72 82 86 93 91 99 98 98 100 100 100 99 98 92 93 89 68 73 76 74 58 59 56 41 39 40 51 52 64 69 77 76 73 71 70 67 55
28 32 26 19 14 16 22 54 50 48 59 62 75 75 76 87 98 98 95 93 98 99 97 95 96 92 95 86 62 74 64 54 75 65 47 47 43 46 64 63 70 75 78 76 76 73 73 68 55
34 29 22 22 19 20 32 45 48 46 48 54 68 67 70 80 69 79 86 90 91 93 96 86 80 73 64 62 66 64 76 62 54 42 40 44 42 40 56 62 76 72 75 77 76 77 75 69 59
25 24 24 19 17 22 26 40 50 46 49 66 54 66 73 68 68 73 62 82 93 94 84 63 62 59 65 60 60 51 53 58 57 52 44 45 47 40 44 57 65 82 81 82 81 79 77 72 62
23 25 25 20 19 18 18 21 48 52 52 49 67 67 67 76 76 84 63 63 66 63 64 69 64 68 64 55 71 84 77 73 64 56 58 44 42 60 56 48 61 77 82 85 82 83 80 76 73
23 24 26 26 22 22 21 26 47 36 38 40 50 56 51 73 80 78 64 62 57 55 57 66 74 81 80 78 87 78 71 63 57 50 55 59 65 80 77 79 78 80 80 81 84 84 84 78 77
25 20 20 25 28 34 24 40 28 26 32 30 38 49 48 70 69 73 64 65 68 70 66 68 74 75 82 72 63 56 66 66 60 46 57 68 72 77 80 76 71 75 69 80 91 88 86 86 90
24 22 22 27 30 29 29 48 44 34 28 30 33 45 45 54 61 67 61 59 60 69 74 75 81 82 73 70 74 57 59 60 60 61 62 66 77 78 75 79 79 80 89 98 84 86 87 92 99
18 20 25 26 32 47 32 51 57 37 25 26 28 38 40 48 54 55 56 58 58 63 65 63 72 66 59 55 77 76 67 66 64 63 66 68 69 71 75 74 73 70 68 77 94 96 97 96 99
21 25 50 60 66 61 39 47 40 31 26 24 25 34 30 37 50 56 60 60 60 60 64 63 64 70 68 65 64 67 70 65 60 57 58 63 69 76 69 72 71 73 77 94 95 100 96 97 99
27 32 59 60 78 70 50 48 30 25 21 17 19 28 31 30 37 46 50 53 56 59 61 62 63 68 72 68 67 65 62 66 67 64 57 58 60 63 65 74 77 81 98 95 96 100 100 100 100
30 37 33 72 69 91 73 42 22 22 19 16 15 26 32 35 33 40 45 47 53 56 61 62 63 63 65 67 67 68 71 67 68 71 64 63 64 65 67 74 73 80 96 96 93 100 100 99 99
24 25 43 64 97 97 57 49 35 38 29 19 16 16 20 27 31 31 38 46 47 49 52 57 59 62 63 64 64 63 66 73 70 70 67 71 71 74 84 92 90 90 100 100 100 100 100 100 100
28 28 34 47 63 73 66 56 38 34 27 18 23 17 19 20 21 25 31 33 38 43 47 49 55 58 61 64 63 68 66 69 79 79 83 85 86 78 78 99 98 100 99 100 99 99 100 100 99
21 28 40 66 52 58 73 59 26 32 20 22 18 16 17 19 20 20 28 32 39 44 44 47 50 54 55 59 66 69 70 70 78 91 90 73 91 100 100 100 100 100 100 99 99 100 100 100 100

GFSSGP_850_rhum_072.txt.gz
RH
15 18 24 27 29 34 32 24 18 18 16 31 31 37 88 93 84 82 90 79 78 96 96 80 65 56 46 61 55 46 45 50 49 35 16 14 15 21 30 48 49 40 26 24 23 39 58 69 80
17 25 33 31 35 36 33 22 20 29 34 33 33 52 71 94 92 89 85 83 79 75 83 80 71 64 50 60 78 49 47 54 45 21 11 12 22 24 42 52 43 25 24 23 27 50 63 65 65
18 26 30 35 39 38 32 20 16 45 34 31 36 57 64 57 74 74 57 51 59 58 65 78 80 69 47 51 82 59 51 56 34 13 16 33 30 38 48 44 25 25 23 24 31 56 65 67 63
18 22 24 25 26 22 21 16 14 45 50 34 43 69 61 55 61 67 76 68 64 37 57 70 73 72 58 68 76 86 57 54 18 62 53 35 42 47 43 25 26 25 24 23 35 61 64 62 62
25 28 31 29 26 20 16 13 12 34 45 45 41 68 60 55 51 60 71 69 76 66 55 65 88 81 98 94 96 93 69 40 18 20 35 44 48 44 27 28 27 24 22 22 41 58 58 56 59
27 24 32 34 27 19 15 18 30 32 45 46 51 67 66 46 46 49 74 74 72 82 73 74 100 86 72 94 82 93 67 25 63 44 56 46 48 34 30 32 29 25 22 20 36 53 56 61 64
32 31 31 27 24 17 20 18 28 33 44 59 46 66 46 47 58 68 99 75 87 100 100 83 95 78 78 68 92 95 87 63 55 76 79 60 44 33 34 36 31 25 22 20 24 50 53 57 58
22 27 27 27 22 19 13 19 22 30 70 63 63 81 59 42 56 70 97 100 100 99 98 100 79 66 77 67 77 99 92 88 80 78 85 59 41 37 38 41 38 31 24 22 20 31 50 54 53
20 28 31 26 18 16 13 21 34 50 48 69 67 65 63 64 64 71 98 100 100 100 100 96 88 76 77 61 76 78 77 79 82 86 82 60 42 40 42 46 48 44 30 24 22 22 38 51 49
21 29 25 18 14 15 15 23 28 56 80 81 92 75 69 77 81 94 100 98 100 99 100 99 84 69 78 92 88 87 75 76 68 72 74 63 43 41 46 50 53 55 46 28 25 25 32 39 42
20 26 19 17 14 12 13 44 38 66 88 77 67 82 94 98 89 96 99 100 98 100 100 99 89 80 87 84 85 83 77 78 76 63 58 50 44 42 47 52 55 56 57 46 37 34 31 33 32
18 16 15 14 13 11 12 42 57 60 49 47 47 65 92 89 98 100 98 99 99 99 100 100 94 88 82 88 79 76 81 74 76 75 63 42 41 44 47 51 55 58 60 57 57 53 34 32 34
18 16 14 15 15 12 15 48 61 61 54 74 83 88 93 98 99 98 98 100 99 99 100 100 90 88 83 81 88 83 80 91 74 55 55 44 44 45 47 50 56 58 59 63 63 64 58 35 36
16 19 20 19 16 14 22 56 47 46 55 77 87 84 86 86 88 97 99 99 100 100 100 100 98 85 79 74 70 61 71 56 54 64 55 45 43 43 47 49 52 55 59 62 64 67 69 49 36
20 25 24 20 17 17 21 37 56 42 54 76 74 79 82 84 82 86 89 99 100 100 99 100 100 100 89 84 73 73 83 60 66 52 49 49 47 40 42 38 47 55 59 64 65 67 69 60 42
25 26 29 20 17 16 17 25 47 48 56 76 83 82 63 80 83 85 89 100 99 100 99 99 100 100 100 88 70 66 76 66 53 49 53 58 49 44 40 37 40 53 62 65 67 65 67 69 65
32 37 32 28 19 19 21 32 49 63 67 76 79 72 62 82 80 88 95 89 99 99 100 100 100 100 100 84 62 78 76 67 47 49 54 58 58 49 39 37 44 57 63 66 69 67 68 72 69
42 36 32 32 23 20 30 39 55 62 66 79 76 80 79 82 75 86 94 95 96 100 100 99 94 94 94 68 76 84 71 59 56 57 78 68 58 43 37 38 43 56 60 72 70 71 72 74 71
31 32 34 27 20 22 29 43 54 56 61 68 72 76 78 77 79 74 84 90 88 99 99 100 98 93 92 68 76 73 63 67 72 75 66 51 49 39 37 41 49 62 64 66 70 74 76 76 71
31 34 34 26 21 21 21 22 50 60 56 61 65 66 60 81 86 69 76 80 86 95 99 97 97 91 86 67 60 63 62 68 64 54 45 42 39 38 42 42 42 40 55 70 77 80 80 79 74
30 33 32 28 23 25 23 29 52 45 51 56 58 42 57 72 80 69 70 68 68 83 94 86 77 71 72 62 67 64 68 66 58 53 48 40 41 49 49 48 41 36 49 70 84 87 86 83 79
35 25 25 25 31 38 25 42 45 42 46 49 54 51 52 74 74 67 60 61 60 62 69 63 62 59 56 53 51 47 52 55 60 56 52 45 48 45 53 64 65 65 70 74 81 88 87 88 86
31 27 27 27 32 32 33 46 42 36 38 41 48 55 57 61 70 67 57 48 44 57 62 62 59 58 53 55 58 72 73 71 63 61 55 48 46 55 61 64 74 77 78 77 77 74 85 91 88
24 26 28 35 38 49 36 47 49 44 34 33 44 50 56 66 71 61 56 54 52 49 50 60 71 74 72 68 69 76 80 72 63 53 52 50 44 48 62 74 75 82 83 84 80 75 84 94 93
26 32 48 52 64 61 44 51 42 29 32 29 42 48 56 66 74 67 64 62 58 60 58 58 65 64 60 66 72 67 66 52 38 41 48 54 55 58 61 67 70 77 79 80 84 92 99 98 99
30 34 57 53 68 63 58 52 41 28 25 22 28 44 53 65 68 61 58 56 56 57 60 64 66 60 55 52 55 49 58 60 66 66 63 57 56 59 60 65 67 68 77 87 91 97 98 100 99
29 39 34 71 74 82 65 56 35 25 23 22 24 38 48 55 60 55 55 55 53 55 54 45 43 54 55 52 59 53 56 68 69 73 70 64 60 57 62 62 69 73 78 82 92 95 99 100 99
28 31 57 65 79 83 67 60 50 29 24 20 29 43 40 47 55 54 54 49 50 49 49 52 47 43 37 46 54 65 65 66 67 70 71 69 61 64 58 66 75 82 83 87 92 100 100 99 100
31 33 42 53 68 80 74 57 43 38 26 23 23 26 34 37 41 50 54 50 45 48 54 51 54 53 51 54 57 64 64 66 67 67 68 76 75 80 82 75 70 90 91 95 96 98 100 100 99
29 28 37 69 73 72 70 55 30 35 23 24 24 22 22 23 27 33 36 40 49 51 53 57 53 56 69 76 80 84 82 83 77 78 84 85 86 78 73 93 95 100 98 100 100 96 100 100 100

GFSSGP_850_rhum_075.txt.gz
RH
16 19 27 29 27 36 36 27 20 19 22 34 43 56 72 92 70 62 77 88 88 99 93 65 49 47 43 45 56 65 56 46 39 32 27 26 22 16 18 42 63 56 36 30 28 58 69 58 68
19 26 34 28 36 38 32 24 19 21 35 38 61 73 72 92 77 66 68 74 70 84 90 82 75 69 56 53 52 47 54 50 42 34 24 20 20 24 37 52 47 32 25 26 36 40 56 57 58
20 26 28 40 43 38 33 23 18 31 23 39 43 66 61 70 88 86 74 62 62 69 72 76 54 90 83 82 77 64 54 66 42 32 20 24 24 49 47 41 28 23 28 43 44 50 56 64 63
20 20 22 31 28 26 26 20 17 31 38 31 45 61 53 47 62 88 64 58 66 75 85 76 68 66 74 86 80 59 57 67 66 25 19 30 35 49 39 26 23 24 34 48 46 57 60 62 62
25 26 34 31 29 22 19 16 14 22 39 42 46 51 62 59 60 56 50 60 74 65 69 84 98 82 78 74 84 81 81 68 93 24 36 41 52 43 27 26 24 25 43 58 58 59 58 64 65
28 25 36 35 29 23 19 15 26 27 34 47 58 67 68 74 56 64 69 90 99 80 74 83 89 98 79 75 69 79 97 92 97 48 50 59 51 32 28 26 23 25 53 60 57 57 58 62 61
31 36 34 31 29 26 18 14 29 37 52 56 53 55 71 67 73 76 67 98 99 90 68 85 93 78 60 66 70 69 89 93 92 76 63 57 38 31 28 26 24 39 56 60 55 52 57 60 62
24 33 31 31 30 25 17 18 31 45 53 59 63 70 64 76 90 99 99 99 97 100 98 98 90 83 90 88 97 82 97 98 78 72 68 40 32 32 32 28 23 28 57 55 52 50 51 52 56
20 32 37 28 23 20 14 23 38 52 58 65 55 55 70 87 99 99 100 99 98 99 100 100 97 95 96 91 90 81 100 96 80 72 61 39 37 40 35 28 23 21 37 53 52 50 50 47 48
24 34 29 23 19 19 17 24 37 52 65 62 66 55 87 100 100 98 99 99 100 99 96 97 98 100 99 82 81 79 82 86 94 71 54 39 41 45 40 32 25 22 21 29 44 42 45 48 42
23 28 23 19 16 17 18 29 38 61 76 48 50 46 90 100 100 99 98 97 99 100 100 96 85 90 88 85 80 86 84 94 88 69 45 42 45 50 49 44 32 25 23 23 29 33 38 40 35
21 19 18 16 13 16 16 21 53 55 36 41 41 51 76 99 99 98 97 99 98 98 100 100 88 80 91 92 79 86 87 90 87 73 44 42 47 52 53 54 52 44 35 31 29 30 34 33 31
21 19 15 16 18 19 20 45 47 50 44 51 59 72 90 97 95 100 100 90 100 98 100 98 88 80 81 85 91 97 89 84 90 74 48 46 50 54 52 56 56 54 52 52 51 37 32 33 34
18 18 21 21 20 19 34 53 56 39 43 50 76 85 98 100 99 99 93 79 95 100 100 99 97 87 82 85 78 83 81 87 83 78 57 46 45 45 55 57 57 57 57 61 62 60 48 33 36
21 26 27 23 20 20 27 42 61 34 46 54 87 99 100 96 91 83 82 84 93 100 100 99 100 91 86 78 79 84 74 85 88 71 53 50 44 51 54 54 54 58 63 62 60 60 65 46 37
25 26 32 22 20 20 18 30 26 38 52 66 93 99 97 88 86 86 80 78 85 100 100 100 100 94 90 89 85 89 80 70 63 52 49 56 47 49 49 48 59 59 60 60 59 61 66 61 51
34 32 33 28 22 22 20 27 32 44 55 70 86 92 96 91 89 94 85 80 82 97 100 100 100 98 100 99 90 94 89 74 60 56 63 50 49 46 44 49 52 55 59 60 62 61 65 66 66
37 39 36 34 26 26 27 30 42 58 63 74 85 82 90 90 79 85 94 86 83 98 100 99 100 100 100 87 90 98 95 71 74 65 52 54 55 54 51 50 49 48 58 61 63 68 68 68 71
32 34 37 32 26 27 30 33 46 59 77 74 80 80 81 90 90 92 99 90 84 100 100 99 97 100 100 94 90 95 93 78 64 52 58 61 62 54 51 61 59 48 45 51 62 70 73 73 74
35 38 38 32 27 28 30 28 40 62 62 62 66 76 77 88 89 88 92 95 85 87 98 100 97 91 99 95 83 88 90 80 67 61 63 63 52 57 60 57 47 46 41 48 64 74 75 76 78
37 38 36 35 30 28 28 31 46 48 56 51 55 61 70 77 75 80 66 77 84 83 90 97 98 93 93 93 88 94 86 75 81 73 68 65 59 61 59 56 44 44 45 46 50 67 75 81 82
38 29 31 34 36 43 28 47 35 49 58 58 56 58 62 67 70 73 60 46 53 71 84 93 99 92 88 79 78 82 74 80 67 66 60 54 52 52 52 47 42 48 51 55 52 61 78 86 90
35 28 34 35 40 37 36 45 40 41 48 49 47 48 48 53 62 64 62 50 39 60 69 79 89 95 92 82 69 66 70 62 52 53 51 48 49 44 40 40 42 52 73 70 67 73 82 89 96
28 33 33 39 43 54 40 45 47 43 39 35 34 40 44 46 58 59 64 56 41 53 60 61 69 72 80 74 68 67 66 57 52 46 44 46 56 47 42 46 41 51 68 79 79 77 80 84 90
32 35 54 54 61 62 42 56 48 33 34 31 34 38 36 40 53 59 68 63 48 50 52 50 54 64 65 70 61 55 51 51 45 43 48 51 50 45 38 40 50 61 68 71 70 77 83 90 94
39 40 63 55 63 55 55 64 45 33 30 27 24 24 26 42 47 50 52 64 56 46 49 52 55 57 58 56 54 50 46 47 51 54 52 50 45 39 44 48 51 58 64 76 76 84 86 85 97
34 45 32 69 80 83 62 50 39 31 28 32 32 37 42 48 44 45 48 51 61 55 49 45 49 53 56 54 53 56 60 64 65 62 54 38 37 48 56 58 59 61 63 70 78 89 85 86 88
28 36 49 65 79 77 62 65 53 38 31 25 35 44 42 47 50 48 50 51 54 55 54 53 50 49 49 55 59 62 64 63 66 64 55 49 57 64 72 74 72 69 70 76 85 89 92 97 97
36 40 50 55 64 67 76 62 49 43 34 25 32 34 37 45 45 44 46 48 50 54 56 56 57 57 58 62 69 75 76 72 65 62 58 63 70 81 90 91 88 85 81 80 89 82 96 97 100
28 35 51 68 72 72 75 66 35 37 34 24 22 31 33 29 29 34 40 44 51 52 59 52 52 58 64 80 75 67 60 54 59 63 65 65 67 88 78 86 84 77 82 85 77 96 100 99 100

GFSSGP_850_rhum_081.txt.gz
RH
15 18 24 27 17 21 22 19 20 18 19 25 48 49 49 64 44 38 76 87 99 83 79 67 64 60 58 55 53 54 70 69 68 63 60 53 48 36 33 37 64 83 74 78 56 80 99 82 55
18 25 31 24 18 18 17 20 20 16 19 26 62 69 62 48 66 69 77 82 89 93 89 94 69 57 58 62 63 63 73 75 75 66 63 56 48 39 49 46 73 76 85 83 59 75 34 30 30
21 31 27 24 27 18 18 19 16 16 18 26 38 50 63 58 62 68 73 80 86 94 98 92 83 58 58 56 58 57 69 88 81 68 64 58 48 48 64 55 79 78 88 76 76 38 30 23 18
23 26 23 22 21 21 20 16 18 17 29 41 41 38 48 40 46 68 63 71 66 80 99 100 88 69 71 63 55 64 58 61 92 74 66 57 49 49 74 72 87 77 83 92 63 45 32 23 15
21 24 25 27 24 21 20 18 18 17 23 43 43 34 47 37 40 47 52 61 57 68 100 100 88 63 70 63 64 56 46 71 99 79 64 54 44 51 79 84 81 76 73 84 69 37 22 17 16
29 26 24 20 22 20 19 19 18 26 30 50 47 47 44 34 40 46 46 48 51 59 100 100 89 63 68 62 62 65 75 68 63 76 72 60 58 64 72 76 64 47 42 73 55 52 44 20 17
27 26 23 24 23 22 19 16 20 22 33 37 42 40 37 41 44 49 52 56 72 85 100 100 95 81 62 62 64 67 62 67 81 79 70 78 80 74 61 49 46 34 46 56 58 56 41 38 24
24 23 30 27 24 20 17 18 23 35 24 42 48 41 46 41 43 49 61 62 79 89 93 100 97 79 74 77 75 66 77 77 82 99 85 77 81 75 51 38 36 46 48 59 62 59 51 45 34
26 27 27 26 26 18 17 18 20 25 43 51 54 49 48 58 52 59 83 95 95 95 99 100 100 100 95 93 88 86 82 81 97 99 97 83 75 66 43 33 47 46 51 61 66 60 54 45 38
23 27 25 22 20 19 20 19 17 32 48 49 58 53 54 56 64 88 98 94 95 94 94 99 100 100 100 100 97 90 84 92 99 99 98 72 54 44 42 44 50 51 52 60 67 63 51 40 34
26 23 23 20 20 19 19 19 22 36 28 28 39 29 45 56 82 99 88 91 86 85 98 100 100 100 98 100 97 89 79 91 100 100 94 68 52 42 40 46 34 54 56 67 68 64 51 39 31
26 24 22 19 19 21 19 20 30 43 22 20 27 38 45 62 93 94 89 93 88 89 97 99 100 100 99 99 98 92 84 99 100 98 77 68 41 38 36 48 43 50 49 50 50 48 47 37 32
26 22 20 20 19 19 21 22 24 36 17 25 34 46 52 69 87 92 96 97 94 98 94 94 96 98 100 99 96 100 100 100 98 90 82 47 34 37 43 40 46 50 49 47 47 44 43 34 31
24 22 20 22 24 24 23 27 50 20 22 34 49 52 72 74 82 91 96 97 97 98 100 91 94 94 93 88 100 100 100 99 92 94 53 39 31 28 27 35 28 50 47 42 39 37 33 32 31
26 27 25 22 20 20 23 30 41 23 33 53 76 74 88 94 89 97 98 98 97 97 99 99 95 96 95 98 100 100 97 93 85 72 50 40 32 26 23 23 24 29 39 34 34 33 34 34 32
27 28 29 20 22 21 23 19 22 23 46 74 90 91 89 95 99 99 87 99 97 99 99 99 100 92 99 100 100 97 94 86 77 56 51 42 45 48 31 51 56 39 44 42 41 37 33 35 34
35 26 30 22 20 21 25 23 22 30 48 64 93 89 89 97 100 99 93 85 100 97 100 99 100 93 97 100 100 100 96 95 71 60 62 58 50 52 50 54 42 49 58 61 62 59 46 39 37
34 34 33 27 22 25 25 23 20 33 54 55 70 91 100 100 98 95 97 87 98 98 99 100 100 97 90 100 100 100 99 84 69 63 62 59 56 57 58 55 61 64 66 68 67 68 62 54 57
30 30 28 26 26 26 24 24 20 23 57 59 69 79 93 88 93 97 98 97 98 98 99 100 100 100 98 97 100 99 100 80 84 66 63 64 61 63 60 56 58 70 70 66 69 71 70 64 71
31 32 29 28 26 28 24 25 22 24 30 49 58 70 79 87 88 88 99 99 97 98 97 100 100 99 98 98 98 100 99 84 93 79 73 67 55 57 60 54 59 62 63 66 70 75 73 70 70
40 40 36 33 30 26 28 28 26 24 41 51 61 59 72 72 77 81 99 98 97 98 98 98 99 100 98 95 93 100 100 96 94 73 67 58 63 55 51 55 56 56 57 59 68 73 72 74 73
39 33 36 37 37 34 30 35 29 23 24 37 47 64 67 75 74 75 98 99 98 98 97 99 99 100 100 99 100 98 92 96 87 75 66 63 59 68 54 54 56 52 56 64 68 73 71 73 74
34 31 35 35 37 37 26 34 33 32 28 23 24 48 58 51 53 67 74 88 98 89 98 99 99 100 100 99 98 97 99 90 82 78 68 65 69 71 56 60 57 54 63 68 72 76 75 70 74
32 32 35 41 40 48 33 37 34 28 27 24 24 29 45 51 47 51 68 76 87 73 80 95 98 98 98 95 96 95 94 86 75 70 66 70 82 68 63 58 56 59 62 62 63 70 73 76 80
34 40 47 57 60 42 38 43 32 29 26 24 23 23 28 39 44 53 56 63 67 63 55 74 81 91 89 87 93 88 86 83 76 66 70 78 72 68 56 58 59 54 52 58 64 66 66 71 77
40 39 43 43 50 38 44 45 31 28 27 30 31 30 30 34 37 43 42 46 51 56 48 60 67 80 88 88 92 97 84 85 85 78 69 64 54 50 50 56 57 53 59 60 63 66 69 69 70
44 47 33 51 72 64 46 42 31 27 28 26 25 28 32 34 34 40 39 40 47 52 48 37 52 64 76 83 87 91 96 88 79 72 74 65 65 58 56 58 56 55 56 67 69 65 67 74 72
33 35 50 46 51 52 47 48 31 28 25 28 32 30 30 36 43 42 37 37 44 50 49 42 33 38 46 62 73 76 79 80 72 65 64 64 59 57 57 56 53 49 53 62 65 57 65 75 78
33 39 45 39 47 43 47 42 38 30 28 35 36 32 29 37 34 52 42 37 43 50 52 47 40 32 30 38 48 60 68 72 67 60 59 55 54 53 51 47 46 45 49 65 64 65 77 76 91
28 32 34 51 59 56 47 38 29 33 32 37 30 26 21 27 30 41 47 45 44 46 52 52 48 43 34 29 34 41 41 48 52 51 44 49 49 50 49 47 46 52 61 62 72 78 82 88 99

GFSSGP_850_rhum_084.txt.gz
RH
15 16 21 23 14 10 10 11 11 12 13 14 22 26 26 29 22 25 48 51 70 82 99 76 69 67 63 58 60 68 70 68 64 57 56 52 41 42 44 49 67 71 73 92 84 83 95 59 66
16 22 28 17 12 9 10 11 12 11 12 18 26 41 39 24 46 60 68 55 72 83 88 79 67 65 59 61 65 70 78 75 70 61 60 48 40 63 40 67 76 79 96 92 88 92 74 48 50
20 28 18 12 10 9 10 11 12 12 14 15 20 37 34 30 58 70 65 58 68 73 78 87 66 62 59 57 64 72 80 78 76 70 63 48 41 40 42 55 87 76 91 82 94 72 49 31 36
27 21 17 12 9 10 11 11 12 13 18 18 18 24 42 54 66 90 50 62 70 68 64 83 74 85 63 66 66 86 95 90 93 76 83 46 41 43 56 55 88 73 73 76 55 29 28 29 28
22 17 12 11 9 9 11 11 13 13 15 26 27 18 28 45 37 39 45 47 65 60 56 65 84 90 82 77 71 72 70 83 64 74 78 65 48 50 48 74 88 79 66 32 30 30 19 19 21
16 16 12 10 9 9 11 12 14 14 18 28 31 26 26 42 39 43 38 42 46 50 49 77 80 84 88 92 87 84 80 74 64 54 92 78 58 54 70 89 85 81 81 38 28 18 16 16 17
15 14 11 10 9 9 11 13 13 15 16 16 31 21 31 65 53 44 43 43 45 52 53 87 96 81 71 83 84 77 72 71 67 71 90 90 75 73 89 89 83 76 79 42 27 23 17 16 17
17 13 12 10 9 10 11 13 14 17 15 37 34 16 19 65 42 46 47 46 53 71 95 98 99 89 70 84 79 84 79 78 81 86 84 96 81 84 89 88 78 53 63 42 39 27 22 18 17
20 15 13 11 11 9 12 13 15 25 24 28 35 33 53 42 49 51 48 55 64 89 95 98 99 94 81 85 81 83 78 82 76 86 88 92 84 86 90 88 53 44 53 50 41 41 33 21 18
17 14 12 9 9 12 13 14 12 14 13 17 29 46 59 52 76 82 85 88 96 93 98 96 99 98 97 87 83 88 88 78 88 93 93 100 91 87 98 70 48 49 56 53 51 46 37 39 37
14 15 11 12 13 13 12 13 13 15 14 14 16 20 56 68 77 82 82 83 92 86 95 98 99 100 100 98 96 91 93 90 93 98 99 99 93 85 84 65 60 55 62 62 60 51 60 76 71
16 14 11 11 11 13 12 13 13 15 16 15 25 29 46 64 73 78 80 84 86 82 86 99 98 100 99 100 100 98 93 91 94 96 100 99 83 82 86 89 62 58 72 69 66 72 81 78 73
18 11 13 14 14 16 15 15 14 13 14 16 34 46 51 64 68 79 79 83 90 90 84 94 95 99 100 100 99 95 96 95 96 99 100 87 72 68 53 60 65 63 80 79 86 85 79 44 70
14 16 15 15 14 16 16 14 14 15 14 22 37 41 48 64 66 77 84 84 95 98 89 96 94 93 99 100 99 93 94 97 100 100 96 89 81 59 51 54 55 52 58 92 87 68 56 61 68
19 19 15 15 15 15 14 14 13 15 24 28 36 45 51 62 68 73 76 88 95 90 95 100 98 94 100 99 98 99 100 100 100 96 90 80 61 46 44 52 50 47 47 48 55 50 50 69 63
20 19 21 14 13 13 15 14 8 12 25 24 32 45 54 62 65 71 76 88 96 94 96 100 100 100 100 99 100 100 100 100 94 84 76 68 48 39 52 55 49 46 43 40 39 35 68 65 61
18 23 18 18 13 12 16 12 10 22 23 24 29 43 51 55 65 71 88 93 96 94 92 100 100 100 99 100 99 100 94 82 86 73 70 57 41 45 38 35 39 43 41 38 36 52 59 55 59
21 22 21 20 14 15 14 14 11 13 20 22 27 42 45 51 62 73 94 96 99 97 89 99 100 100 98 100 100 100 95 87 73 67 47 32 29 32 54 58 57 55 53 44 42 46 41 42 52
18 22 21 16 16 19 17 15 11 10 16 22 29 35 45 51 62 74 96 99 92 98 98 93 99 100 98 100 100 99 94 82 76 66 51 50 66 36 48 56 54 50 56 66 66 64 59 48 52
26 24 22 16 16 21 18 15 11 10 14 17 20 30 38 51 64 75 97 99 94 96 97 98 98 100 97 100 100 99 99 77 76 68 69 69 48 38 51 51 53 62 68 64 63 65 64 68 61
28 27 23 21 18 19 21 21 16 9 14 20 25 26 32 42 57 75 91 98 98 99 97 98 99 98 100 100 100 100 99 90 85 76 72 70 72 48 54 58 62 66 64 61 65 67 69 76 77
30 20 22 24 25 26 20 23 13 15 16 16 20 30 31 39 48 70 83 97 98 99 96 98 98 99 99 99 100 100 97 86 96 84 72 82 75 66 62 61 62 52 55 63 64 66 73 78 82
26 20 19 23 27 27 25 26 15 12 16 15 13 20 29 36 46 60 76 89 96 100 99 98 99 100 100 99 96 98 99 82 89 94 73 73 70 72 63 62 64 56 61 59 59 62 66 76 90
24 27 28 29 29 38 29 23 18 14 18 16 14 14 22 32 43 54 70 88 92 99 99 99 99 97 98 100 97 98 95 88 97 89 72 66 62 72 69 78 55 56 56 53 56 66 69 74 89
27 28 36 43 43 38 20 23 20 16 16 16 14 15 20 30 40 52 67 80 87 95 84 99 99 98 99 99 100 99 93 95 81 80 65 62 69 71 88 66 58 58 59 57 61 68 68 73 80
30 29 32 40 36 32 23 30 21 16 14 15 17 19 22 30 39 49 59 70 85 92 80 78 93 100 99 99 99 98 98 98 91 90 78 75 77 77 92 76 70 62 61 62 66 66 69 74 67
24 33 23 33 30 46 28 24 22 18 18 17 17 16 19 24 36 45 55 69 83 91 73 43 67 93 100 97 99 100 99 99 99 91 78 80 82 82 90 75 61 59 61 62 57 59 66 71 76
18 18 36 34 45 43 27 28 25 21 19 16 18 20 22 21 31 42 50 64 75 86 75 45 53 86 95 97 98 99 99 100 100 97 92 82 86 91 94 86 69 75 62 60 57 56 61 86 81
28 32 29 27 30 36 34 24 19 20 18 18 19 21 23 26 33 42 47 56 68 80 87 54 56 86 88 93 98 99 99 99 98 96 96 94 92 94 96 77 77 64 60 59 65 69 60 75 81
23 26 29 39 30 34 35 30 21 22 21 22 20 23 24 32 38 44 50 54 62 72 80 72 67 75 82 91 94 96 97 96 93 88 78 75 74 75 65 61 63 69 71 65 80 89 86 66 69

GFSSGP_850_rhum_087.txt.gz
RH
11 11 20 18 14 10 8 7 6 8 9 10 14 16 16 17 16 27 67 68 27 46 93 88 70 65 66 68 70 73 74 69 62 54 53 51 48 38 39 59 66 71 81 72 56 64 81 85 77
28 20 21 15 11 9 7 7 9 8 9 11 14 20 19 17 22 34 52 58 56 40 69 99 79 67 70 70 79 78 78 76 66 57 58 58 47 38 40 62 80 85 71 68 59 51 66 70 80
26 22 20 12 10 9 8 8 8 8 11 10 12 17 20 19 31 41 70 35 50 47 64 89 92 69 69 67 69 76 82 85 79 60 62 64 47 41 66 77 84 81 70 58 37 41 43 60 78
22 18 14 10 9 7 8 7 8 10 11 12 11 14 22 40 38 59 51 40 41 81 66 74 67 72 68 67 73 77 83 96 97 74 73 64 63 58 69 81 86 88 73 52 27 36 43 53 63
19 14 13 11 10 7 6 7 9 10 10 14 14 13 18 39 53 54 63 31 34 41 47 56 61 71 83 90 81 72 60 73 69 84 97 73 79 77 78 87 88 83 93 72 43 24 34 33 47
13 11 13 11 8 6 6 8 10 10 11 14 20 15 16 43 52 61 35 31 32 33 35 45 52 69 77 94 87 78 74 83 64 72 84 73 75 89 94 72 73 78 79 31 25 19 22 28 33
14 12 13 11 9 7 6 8 10 11 12 12 16 16 21 45 50 54 40 36 35 34 33 37 55 83 84 94 96 85 78 66 77 88 83 81 84 81 82 76 63 72 45 32 27 16 16 20 23
13 11 13 12 10 8 6 8 10 11 11 18 18 16 14 42 55 60 75 81 46 36 38 45 57 97 95 94 96 88 87 95 92 87 87 78 97 82 68 55 48 75 43 23 17 16 15 17 19
15 15 14 11 9 8 6 9 10 12 13 12 17 18 31 54 63 69 79 82 86 49 49 49 62 91 95 92 93 92 86 85 93 93 86 97 96 88 90 91 78 83 41 26 18 17 16 16 20
15 15 13 9 8 8 7 9 10 9 10 11 13 17 29 53 58 60 63 65 90 96 76 55 69 87 97 98 93 93 96 90 89 94 97 75 98 92 91 91 79 74 47 32 27 20 17 19 23
13 15 11 9 9 8 8 8 9 10 10 10 11 12 16 40 48 52 52 56 67 88 90 67 79 91 89 100 96 89 94 90 89 93 86 94 95 90 94 94 91 71 54 40 37 26 33 66 61
14 12 11 10 9 9 8 8 8 9 10 11 12 13 20 22 41 46 52 58 60 88 73 71 86 89 93 94 91 99 95 99 98 89 99 99 100 94 96 78 81 65 54 50 42 51 70 71 69
13 11 11 9 10 10 10 10 10 10 10 10 11 12 20 26 35 45 53 57 59 83 87 84 85 93 98 100 91 98 96 100 98 92 100 100 100 90 91 67 87 76 69 55 60 75 76 73 74
12 11 12 12 11 12 12 12 11 10 9 11 12 13 18 29 39 44 59 58 64 70 98 89 84 93 98 100 99 99 100 100 96 92 95 96 94 92 84 75 90 92 85 77 78 80 76 69 70
15 16 14 13 13 12 12 14 13 11 10 9 13 16 25 27 40 45 54 61 66 72 95 80 86 90 97 100 98 99 98 95 93 98 100 100 90 95 74 67 88 93 92 86 83 77 67 63 64
19 18 22 15 12 11 12 18 11 9 8 9 15 17 24 33 41 45 53 61 67 74 98 94 87 98 99 99 98 92 93 100 100 100 98 99 96 80 63 68 88 91 94 91 85 76 67 63 60
21 26 21 16 12 12 12 14 10 9 12 13 15 17 26 34 42 46 54 63 67 76 97 98 91 98 99 99 100 99 100 100 100 100 100 97 87 67 71 76 76 91 61 61 72 68 67 62 59
24 23 18 18 14 12 14 13 11 9 12 13 14 16 24 32 38 45 56 66 70 79 100 90 96 98 98 100 100 100 100 100 99 98 91 83 76 69 86 75 56 55 44 57 44 49 66 64 58
17 17 16 15 12 15 16 15 13 10 8 9 14 16 20 27 33 44 59 72 76 85 99 100 99 99 99 100 100 99 98 80 76 71 70 76 77 84 71 54 53 62 65 47 41 57 59 58 56
21 20 20 16 14 15 16 17 13 11 10 9 9 13 18 26 34 46 61 80 86 90 100 100 94 99 98 99 100 84 77 76 77 76 77 82 66 74 52 69 62 68 64 56 61 59 58 63 54
22 24 24 21 16 14 17 19 16 13 12 11 8 12 14 21 34 46 61 82 97 94 99 100 99 100 98 98 100 100 94 87 90 85 77 77 66 59 59 76 69 66 54 60 64 71 68 71 70
29 21 20 20 21 24 16 24 17 13 10 9 9 14 15 17 29 43 58 74 90 92 99 98 95 99 99 100 100 98 88 82 84 84 58 63 57 55 58 67 63 53 64 63 72 84 85 78 78
26 19 21 21 20 21 20 21 18 15 14 11 12 14 16 18 25 38 55 66 77 84 98 98 92 98 99 98 99 100 87 73 66 68 60 68 60 52 41 60 79 65 66 73 84 85 66 86 79
23 22 22 22 22 34 24 24 22 16 13 13 12 11 12 16 24 33 49 60 71 83 94 98 97 95 98 100 99 99 99 84 82 75 75 70 63 66 58 60 70 72 74 87 84 67 70 70 86
26 28 37 41 39 38 20 21 20 13 12 12 12 12 13 15 22 32 46 58 66 80 89 98 98 99 99 98 99 95 99 97 85 76 77 63 66 71 71 78 84 90 85 91 70 57 84 67 70
27 29 38 43 38 32 19 25 18 12 11 11 12 13 15 18 22 29 40 55 64 77 89 99 100 100 98 98 99 98 99 100 92 100 86 67 69 73 78 76 82 91 87 85 76 79 87 83 78
20 31 23 29 27 38 30 21 16 14 14 14 13 13 14 15 20 28 35 53 61 72 84 92 100 100 99 100 99 98 97 99 94 84 89 79 69 72 75 75 78 86 91 84 73 84 74 79 78
15 9 25 25 39 42 26 21 18 17 17 15 14 15 15 14 17 26 34 48 57 69 79 89 95 99 99 99 98 97 98 96 94 86 76 82 78 72 72 70 78 81 87 83 85 84 79 86 76
19 18 19 23 27 32 32 20 15 16 15 15 17 17 18 18 16 23 32 42 55 66 73 83 87 88 95 98 99 97 94 93 94 94 86 89 72 73 76 79 78 82 89 82 85 78 80 86 82
17 20 20 30 32 23 26 25 14 16 15 16 16 20 21 24 21 23 32 39 54 63 67 78 81 79 82 92 98 98 95 94 95 95 90 83 78 79 85 84 85 86 88 87 86 85 87 84 84

GFSSGP_850_rhum_090.txt.gz
RH
10 9 15 19 17 14 13 9 5 7 7 9 10 12 13 16 14 40 62 37 22 60 42 46 71 66 63 66 66 74 76 68 59 51 53 51 48 45 38 35 45 70 71 86 75 72 68 69 62
16 22 17 15 19 15 10 7 8 7 8 10 11 13 14 16 21 48 65 56 24 24 36 55 69 74 67 68 70 65 73 77 67 57 54 54 51 45 37 44 74 84 88 85 57 63 63 48 54
28 22 17 18 16 15 11 7 8 7 9 10 9 12 14 19 29 50 40 18 25 23 32 44 63 76 69 69 67 73 80 83 79 67 58 61 55 45 40 58 78 82 90 58 45 34 42 44 61
25 18 17 17 14 10 7 6 7 8 9 10 10 9 15 21 26 45 40 28 29 61 48 35 45 64 76 70 68 68 72 85 94 100 95 78 59 49 50 58 78 82 82 90 51 22 33 45 62
22 16 16 15 13 9 7 6 7 8 8 10 12 11 15 31 38 23 22 28 32 53 40 32 35 52 68 76 70 70 71 74 62 66 70 100 87 61 72 77 79 84 82 98 33 27 27 42 65
16 13 16 14 11 8 6 6 7 9 9 10 14 16 16 36 32 17 13 23 25 33 34 32 31 38 56 72 84 84 80 78 77 73 72 92 93 84 97 86 86 78 84 76 39 32 29 32 63
16 14 14 13 12 11 7 6 7 9 10 10 12 15 20 40 44 21 16 20 24 31 39 35 39 37 50 65 83 95 84 81 76 69 66 68 99 97 81 96 87 72 62 36 28 26 25 29 63
15 13 15 12 12 12 7 6 7 9 10 12 15 16 19 41 44 34 29 27 31 33 38 48 55 75 89 72 92 93 89 77 73 75 80 72 89 96 93 88 86 83 56 27 20 25 25 26 45
14 15 15 13 12 10 7 7 8 9 10 11 10 14 25 45 36 55 63 63 62 46 49 58 83 98 99 92 90 92 86 84 88 84 87 88 94 99 99 83 90 90 34 28 18 21 21 24 39
14 16 15 11 9 10 8 7 8 9 10 11 11 12 19 36 50 52 59 63 65 72 82 95 89 99 99 98 98 93 90 82 83 85 95 87 99 100 100 87 88 60 32 18 17 18 21 26 30
13 16 13 11 10 10 9 8 7 8 10 9 10 10 12 32 44 46 45 45 51 68 88 84 50 70 99 98 100 99 92 90 92 88 83 96 78 92 94 91 99 53 24 18 18 22 22 23 55
15 12 12 11 11 10 9 8 8 8 8 8 9 10 11 14 22 34 38 45 48 59 75 89 58 72 82 100 99 98 92 91 94 96 83 94 77 96 99 83 87 52 34 23 20 26 29 28 64
15 12 12 11 11 10 9 10 9 9 9 9 10 10 10 12 17 21 34 42 48 61 69 60 67 72 78 92 92 99 98 93 95 96 97 91 91 98 91 91 87 53 33 30 32 68 51 38 68
14 12 11 11 11 10 11 10 11 11 11 10 9 10 10 11 16 25 35 47 52 60 67 65 90 74 78 89 86 92 97 96 94 98 96 99 96 93 90 89 81 54 43 36 67 73 68 64 73
16 18 15 13 12 12 12 14 13 12 12 12 11 9 11 12 20 29 36 50 55 60 72 77 97 91 90 88 86 89 98 97 98 99 99 99 99 97 91 84 79 56 52 60 83 75 74 72 75
19 19 22 15 14 14 14 19 13 12 12 10 10 9 12 14 24 30 39 51 58 64 75 79 98 86 92 97 99 89 98 100 99 94 99 99 100 100 100 79 69 64 68 82 82 75 68 67 73
24 28 24 20 15 14 14 16 11 10 10 8 8 9 14 18 28 34 41 51 58 66 77 81 99 94 95 99 98 92 86 91 97 90 95 100 100 98 90 88 73 83 80 90 81 70 63 63 66
28 26 22 22 17 14 14 15 12 11 11 11 12 12 14 19 28 36 42 52 59 67 82 93 99 94 97 98 98 98 99 99 100 100 100 100 100 100 98 83 70 92 88 86 79 66 65 60 61
20 20 22 20 16 14 15 16 13 11 12 11 13 13 13 16 25 35 43 56 62 70 84 98 99 90 97 98 98 99 99 100 100 100 100 100 100 100 73 85 82 76 91 64 66 66 67 53 57
17 20 22 21 18 16 16 16 14 13 12 12 11 9 13 14 22 35 47 62 67 77 86 96 100 97 100 99 100 99 99 100 100 99 100 100 93 79 77 95 87 80 65 59 58 58 54 59 56
20 24 23 30 25 18 19 19 17 14 13 12 12 11 9 13 22 36 50 67 74 79 88 97 99 100 99 100 99 100 98 98 91 90 82 89 82 74 75 74 76 72 71 68 52 62 66 53 52
21 19 25 33 39 47 20 28 20 15 14 13 12 12 11 11 19 34 49 69 80 85 88 97 98 98 98 99 100 93 72 73 78 80 87 91 83 84 83 79 73 65 69 64 54 59 60 66 54
20 20 28 41 44 34 26 27 20 16 15 14 12 11 10 13 14 34 46 64 79 88 93 98 99 99 99 98 88 76 74 78 80 86 87 77 78 86 86 83 76 74 68 63 70 73 77 72 74
19 22 28 32 37 56 34 26 23 20 17 14 10 10 13 15 16 30 43 58 73 85 91 97 97 99 96 98 98 82 77 82 86 74 79 78 69 74 69 82 85 72 67 76 74 75 73 82 82
22 30 43 60 65 60 26 25 24 18 15 13 12 12 12 14 17 25 47 57 65 79 89 98 98 99 97 94 99 98 92 84 85 71 64 64 65 61 62 62 69 85 74 78 81 69 76 77 66
25 33 39 54 71 73 41 38 21 14 13 11 11 12 12 14 18 24 42 53 62 75 88 99 99 100 97 96 96 96 98 88 85 72 69 62 60 52 55 58 63 66 83 74 75 82 74 76 52
26 35 25 37 39 54 43 37 24 16 12 13 12 12 14 16 18 21 36 51 59 72 84 90 100 94 99 97 98 99 99 98 92 76 73 62 63 59 56 61 60 84 76 71 69 66 63 56 48
19 23 38 36 49 42 29 28 29 22 16 14 15 14 14 14 16 21 28 50 56 68 80 86 96 94 99 98 98 98 98 99 97 91 68 64 59 61 64 63 63 64 78 75 72 75 57 56 55
15 18 21 20 23 34 43 36 28 35 27 17 17 18 18 18 17 20 27 49 54 65 75 83 85 99 98 98 96 98 98 97 97 99 86 75 62 61 62 65 66 80 80 74 80 81 66 63 64
16 19 18 31 31 31 35 35 17 17 19 18 17 19 21 20 21 19 27 48 55 62 72 81 83 87 90 98 98 96 98 97 98 99 92 88 82 65 64 65 70 79 85 74 78 80 75 74 69

GFSSGP_850_rhum_093.txt.gz
RH
6 10 12 22 32 30 28 19 12 9 13 12 12 15 17 15 28 51 51 34 30 31 32 39 49 59 58 58 61 64 65 62 55 48 45 43 42 42 41 37 32 24 28 33 58 67 68 71 69
8 20 23 20 31 36 29 15 13 13 11 10 10 12 15 18 47 55 56 37 50 32 25 30 39 56 64 59 56 57 66 70 64 57 54 51 46 43 41 32 26 42 61 68 54 52 52 56 69
20 30 26 31 33 33 26 11 11 11 10 10 10 11 14 34 49 50 36 26 22 33 23 25 29 42 65 66 64 60 60 71 77 74 83 94 80 48 40 32 59 69 77 89 94 66 68 62 63
24 25 19 28 31 22 18 12 10 10 10 10 10 11 16 27 35 36 27 22 22 19 24 25 26 35 50 65 67 68 72 82 92 87 81 85 91 91 46 57 75 79 82 99 97 52 53 51 53
24 24 30 31 25 16 12 9 9 10 9 12 11 14 30 36 30 24 14 16 22 20 22 27 28 34 52 54 65 68 70 79 86 73 76 68 64 92 83 76 83 81 81 90 39 40 51 67 72
24 19 29 30 22 15 12 9 9 11 10 10 15 16 23 31 26 17 13 18 19 22 23 29 31 34 50 68 71 71 77 74 81 85 76 85 75 71 99 98 83 82 73 48 36 46 68 78 78
30 28 29 24 19 15 12 8 11 12 11 11 11 21 31 42 30 19 18 15 20 28 25 30 33 33 42 58 72 84 83 80 79 90 81 80 65 67 97 94 92 81 81 41 29 54 69 74 77
25 24 26 22 20 18 11 8 8 10 11 10 14 18 42 39 32 26 23 16 19 30 33 34 38 44 49 59 72 87 89 90 85 84 74 74 74 77 99 88 88 81 90 56 30 33 71 73 65
21 29 29 23 18 14 11 8 9 9 10 10 10 11 20 31 40 36 25 20 24 34 40 42 50 98 98 88 80 85 89 90 89 84 85 80 75 77 100 89 83 84 90 47 31 30 54 67 63
24 30 25 17 15 15 13 11 8 10 11 11 11 11 27 34 40 34 26 26 39 49 56 62 47 98 98 96 89 91 95 84 92 92 88 80 89 96 100 100 94 88 83 32 26 28 48 58 64
20 26 19 16 14 14 14 12 9 10 12 11 12 11 34 35 33 32 32 36 41 50 59 70 62 82 97 97 99 97 95 88 91 86 91 88 87 98 97 99 93 94 65 30 25 28 38 56 64
26 18 16 14 13 13 14 12 11 10 10 9 9 10 21 29 27 31 38 44 46 57 59 69 66 47 88 98 97 95 94 89 90 87 86 91 83 100 100 100 84 83 44 20 23 25 38 54 64
24 20 17 15 13 12 12 13 12 10 10 10 10 10 10 20 29 28 27 38 45 50 56 60 63 47 72 98 91 96 100 94 89 91 91 94 82 94 90 77 84 54 23 20 22 26 27 64 69
21 20 19 16 14 14 14 14 12 11 11 11 11 11 10 10 10 14 20 40 45 48 56 60 64 50 71 98 99 97 99 98 94 96 90 96 86 97 83 70 79 36 22 20 21 22 57 72 64
20 26 21 20 18 18 14 18 18 12 13 12 12 12 11 10 10 12 20 34 43 49 57 60 64 58 72 89 96 95 95 99 99 97 96 100 94 99 80 72 86 38 25 25 34 28 66 68 63
30 29 33 21 19 16 16 22 18 14 14 13 12 12 12 10 11 15 26 37 48 52 58 61 69 68 92 92 92 92 94 95 98 99 99 99 94 100 90 73 80 41 30 54 68 50 46 70 65
36 44 37 29 21 20 19 21 17 14 14 14 13 11 13 10 11 22 32 40 51 56 60 65 73 82 100 100 97 95 95 100 98 100 96 99 96 100 88 84 80 43 70 72 75 72 70 70 68
45 39 36 33 24 21 22 21 18 14 12 12 12 10 10 10 22 28 37 46 50 58 63 70 78 88 100 100 99 96 92 97 100 100 99 100 99 100 100 92 83 47 76 83 77 72 68 69 68
28 30 31 25 18 19 23 25 22 15 13 15 16 12 12 12 21 29 38 46 51 58 65 72 80 97 98 99 100 99 91 95 98 99 99 99 100 100 100 100 77 56 74 84 72 66 64 67 63
20 24 25 20 18 19 23 31 30 24 16 14 14 15 13 13 25 34 42 47 51 57 66 73 81 96 93 99 98 93 97 100 99 99 99 100 100 100 100 92 79 76 76 83 70 61 62 60 52
14 19 25 27 25 29 41 41 36 23 16 14 12 12 13 13 26 39 46 50 54 58 66 75 82 98 98 98 99 96 99 100 100 100 100 100 100 100 96 87 89 86 70 82 63 60 56 57 53
17 12 14 22 43 58 41 75 46 35 23 16 14 14 13 13 27 38 48 55 53 59 71 80 87 98 98 99 99 99 98 98 99 99 99 100 100 100 100 93 81 74 90 74 63 55 54 49 57
21 17 18 37 48 55 53 73 56 30 24 18 16 15 14 13 36 44 45 50 54 60 71 84 88 97 98 98 97 98 98 100 99 92 92 92 97 95 89 84 82 74 72 58 58 61 61 59 58
21 24 30 40 50 80 62 62 59 35 26 18 15 14 14 13 37 36 42 53 57 66 74 85 93 96 95 98 98 95 96 92 89 86 92 94 90 89 86 83 81 78 72 67 65 51 52 62 55
26 32 55 70 70 71 37 53 54 32 21 16 16 15 15 12 36 49 53 60 63 67 74 80 96 94 94 94 97 92 83 75 70 76 84 95 93 89 88 88 79 75 67 68 70 55 60 71 76
32 33 63 68 82 84 48 70 54 35 34 16 14 14 12 15 34 46 44 52 61 65 68 77 94 95 96 96 90 87 74 72 72 72 72 80 79 86 77 78 75 65 63 70 68 71 77 80 78
35 39 31 47 44 68 52 39 34 33 25 18 15 13 15 19 38 45 53 56 59 62 59 69 86 96 97 97 92 87 78 73 78 72 66 71 69 70 71 74 90 84 76 74 73 79 81 76 70
25 26 43 48 60 57 39 31 51 36 34 31 20 21 19 19 32 44 46 54 54 53 57 70 80 83 98 98 98 92 93 89 87 81 64 64 65 61 65 67 73 74 70 76 79 85 86 75 66
23 29 32 30 47 59 52 43 33 35 34 39 37 24 20 19 21 46 46 52 54 57 59 68 79 88 99 98 99 97 95 96 94 91 84 70 62 55 63 64 62 58 58 66 69 82 77 72 68
18 19 20 33 36 36 40 35 29 26 39 41 52 50 20 20 21 28 50 57 60 60 60 64 72 76 87 100 98 99 98 94 97 97 91 89 74 61 53 53 54 56 63 61 74 80 72 73 68

GFSSGP_850_rhum_099.txt.gz
RH
13 13 19 19 33 39 38 29 20 18 14 13 14 15 18 21 22 28 20 39 34 23 18 21 34 58 59 56 52 51 47 44 43 42 40 52 57 67 73 72 73 68 60 49 61 76 68 71 80
9 16 18 24 37 38 31 26 21 18 13 13 13 18 24 40 39 26 29 32 44 18 18 20 22 34 59 61 58 56 53 49 46 47 46 54 62 60 65 72 72 68 59 64 73 75 90 82 80
14 20 26 34 46 40 28 22 15 14 12 14 12 13 26 35 37 20 19 17 23 19 21 19 20 21 34 59 61 61 60 57 52 48 47 48 57 76 59 63 62 69 72 78 71 76 92 82 80
22 31 30 36 41 37 25 18 20 16 11 11 11 18 27 27 27 26 17 16 19 24 20 20 20 20 28 46 63 65 64 64 60 54 49 49 56 62 70 59 53 70 71 73 70 77 87 84 82
28 30 37 38 37 31 25 20 16 16 13 11 12 17 32 30 34 32 22 19 20 21 20 20 24 28 24 38 60 66 68 70 69 64 57 54 52 54 58 49 53 64 62 67 71 82 81 86 87
29 29 43 43 32 26 20 17 15 16 14 12 14 36 39 40 38 29 22 18 17 15 16 18 23 29 33 39 56 70 79 79 76 77 70 61 58 65 60 63 64 67 65 47 79 79 81 87 88
35 38 41 35 31 26 19 14 15 16 14 16 17 42 37 38 41 36 25 18 15 16 19 20 22 27 32 42 57 80 83 88 87 87 92 80 69 67 75 74 72 67 63 62 84 75 80 89 90
29 39 36 35 31 27 17 14 12 13 13 12 15 48 50 28 48 44 36 22 20 18 21 22 28 30 30 32 56 87 85 95 100 99 98 96 81 86 86 84 84 82 68 80 80 80 83 96 84
31 44 45 38 28 24 17 18 15 15 13 12 15 16 17 22 46 52 46 34 28 23 23 22 27 31 32 33 43 84 86 91 97 95 100 96 94 96 81 82 78 89 62 87 71 79 88 92 84
42 54 43 30 24 21 21 20 19 16 14 12 11 13 14 21 35 42 34 26 21 20 17 23 33 38 42 36 43 83 99 93 98 96 89 89 97 79 72 74 80 81 70 78 59 75 93 94 92
38 41 34 28 22 22 24 23 20 16 17 14 12 11 16 28 38 40 36 30 21 21 22 27 35 43 41 39 38 56 98 99 95 92 95 93 84 79 77 88 96 98 94 79 69 86 93 95 96
40 32 29 28 25 24 24 20 19 18 16 15 14 12 12 23 29 30 38 34 27 24 28 31 41 49 50 52 46 55 91 98 96 91 95 95 85 86 84 92 100 96 89 82 84 93 89 92 80
40 34 29 27 27 25 23 24 22 19 18 16 14 13 12 14 18 22 26 33 32 26 32 37 48 55 56 58 53 57 62 85 94 97 99 97 94 91 90 95 97 90 90 79 80 98 91 76 74
26 27 27 26 26 26 26 25 22 19 17 16 15 13 13 14 16 17 31 32 35 29 35 45 54 62 61 60 57 54 63 81 85 89 89 94 91 96 94 95 98 96 92 79 81 94 80 76 80
25 32 30 29 26 26 22 28 27 19 17 16 15 14 14 15 16 21 17 21 32 30 35 43 56 67 65 63 56 52 67 77 84 85 91 89 93 99 95 94 95 100 96 79 86 90 78 79 82
32 34 43 31 29 25 25 31 24 17 17 17 16 16 15 16 17 17 15 17 27 32 34 44 57 64 67 63 56 53 66 80 94 85 88 90 94 97 97 98 100 98 92 67 86 92 87 76 76
42 49 45 37 27 26 28 32 23 20 20 21 20 18 18 19 17 15 16 15 16 27 35 41 55 62 65 64 58 62 84 91 82 90 93 99 100 100 100 100 100 89 96 64 73 93 86 76 78
45 51 47 44 31 29 34 33 28 21 22 22 21 19 18 19 16 15 15 16 14 24 35 44 56 65 67 65 60 68 99 98 95 96 92 99 100 99 100 100 92 100 69 56 52 83 81 76 77
38 43 46 34 28 29 32 30 26 21 22 30 24 23 22 19 16 16 13 17 15 22 34 48 58 67 69 69 59 58 89 98 98 98 99 100 100 100 100 100 93 85 57 39 42 71 72 78 76
34 39 41 33 29 29 29 27 20 26 30 26 25 26 25 23 22 20 16 20 15 18 38 53 61 66 64 72 60 49 63 99 98 98 99 98 99 100 100 99 92 68 44 34 30 70 77 78 76
28 31 27 30 22 22 32 27 31 28 26 23 24 23 23 24 24 20 22 31 22 29 38 52 60 65 67 72 65 60 97 99 98 100 99 99 96 100 100 99 88 84 34 36 30 60 74 77 78
27 21 20 22 22 29 32 30 20 26 27 31 29 26 22 26 25 19 26 41 28 30 46 54 62 66 69 72 64 58 72 80 89 99 100 99 99 100 93 100 99 94 35 27 31 68 70 68 76
26 24 25 24 24 26 34 67 37 37 37 28 25 27 27 26 24 20 25 30 37 41 50 54 63 69 71 70 66 71 87 98 98 98 99 91 94 100 100 97 100 98 53 45 32 69 63 59 70
26 28 32 35 40 68 42 64 36 33 38 36 31 30 40 31 27 20 23 42 54 69 61 61 66 68 74 70 68 83 85 87 95 97 96 94 94 99 100 100 100 98 84 64 60 53 60 61 66
29 35 59 70 84 65 54 64 39 35 33 38 45 51 46 42 33 26 35 41 55 61 70 65 66 67 74 70 67 87 93 92 92 92 98 97 95 99 100 100 100 100 90 88 81 76 78 71 60
37 41 62 61 68 49 54 70 48 41 45 51 54 54 49 47 46 28 25 32 51 65 66 65 65 67 74 66 68 97 96 98 98 98 99 100 99 99 99 100 100 100 99 92 84 81 81 79 67
32 44 35 46 56 70 68 55 37 43 66 64 62 61 58 54 51 42 30 32 50 56 60 61 62 68 72 61 67 92 91 94 89 98 100 100 100 100 99 100 100 100 100 95 88 77 90 75 71
26 28 46 56 65 63 53 49 50 70 78 69 68 71 64 55 53 53 59 54 54 56 62 66 61 63 66 60 63 81 85 82 83 92 98 97 100 100 100 99 97 92 93 83 82 90 81 79 77
34 40 42 43 62 55 60 56 73 70 63 75 79 77 67 58 52 70 80 87 90 72 62 62 64 68 68 59 63 80 86 83 83 86 88 93 96 96 100 100 96 82 81 84 85 85 80 74 71
29 36 49 62 57 64 65 56 46 44 62 68 71 83 68 62 51 43 70 84 92 93 72 63 64 73 70 61 64 77 84 82 86 84 88 84 85 83 86 99 100 99 97 94 89 92 84 73 68